GFSMA_prec_precacc24_162.txt.gz
Total_Precipitation_Accumulation
0.14 0.14 0.09 0.05 0.03 0.03 0.02 0.02 0.00 0.00 0.00 0.00 0.00 0.00 0.00 0.00 0.00 0.00 0.00 0.00 0.00 0.00 0.00 0.00 0.01 0.00 0.00 0.00 0.00 0.00 0.00 0.00 0.00 0.00 0.00 0.00 0.00 0.00 0.00 0.00 0.00 0.00 0.01
0.11 0.12 0.07 0.05 0.04 0.04 0.02 0.02 0.02 0.01 0.01 0.01 0.00 0.00 0.00 0.00 0.00 0.00 0.00 0.00 0.00 0.00 0.00 0.00 0.00 0.01 0.01 0.00 0.00 0.00 0.00 0.00 0.00 0.00 0.01 0.00 0.01 0.00 0.00 0.02 0.03 0.04 0.03
0.18 0.16 0.13 0.11 0.07 0.09 0.12 0.09 0.05 0.03 0.04 0.03 0.02 0.02 0.00 0.00 0.00 0.00 0.00 0.00 0.00 0.00 0.00 0.00 0.00 0.00 0.01 0.02 0.07 0.07 0.05 0.07 0.09 0.08 0.08 0.11 0.08 0.06 0.06 0.07 0.08 0.03 0.02
0.14 0.22 0.21 0.10 0.27 0.32 0.33 0.24 0.21 0.11 0.06 0.08 0.06 0.04 0.03 0.01 0.01 0.01 0.00 0.00 0.00 0.00 0.00 0.00 0.00 0.00 0.01 0.02 0.03 0.03 0.03 0.06 0.06 0.05 0.05 0.07 0.06 0.08 0.07 0.04 0.02 0.01 0.01
0.09 0.14 0.17 0.19 0.30 0.35 0.36 0.31 0.33 0.28 0.21 0.22 0.25 0.18 0.07 0.03 0.04 0.05 0.04 0.00 0.00 0.00 0.00 0.00 0.00 0.00 0.00 0.00 0.00 0.01 0.01 0.01 0.02 0.02 0.02 0.03 0.04 0.04 0.01 0.00 0.01 0.01 0.00
0.18 0.23 0.18 0.16 0.29 0.23 0.22 0.24 0.23 0.28 0.27 0.30 0.27 0.24 0.22 0.20 0.17 0.13 0.12 0.09 0.03 0.01 0.00 0.00 0.00 0.00 0.00 0.00 0.00 0.00 0.00 0.00 0.00 0.01 0.02 0.02 0.02 0.01 0.00 0.00 0.01 0.00 0.00
0.12 0.20 0.15 0.13 0.21 0.15 0.12 0.21 0.21 0.21 0.21 0.24 0.28 0.26 0.28 0.47 0.67 0.69 0.57 0.47 0.24 0.12 0.11 0.01 0.00 0.00 0.00 0.00 0.00 0.00 0.00 0.00 0.00 0.00 0.01 0.01 0.02 0.01 0.01 0.00 0.00 0.01 0.01
0.05 0.05 0.07 0.10 0.15 0.15 0.14 0.16 0.21 0.18 0.13 0.14 0.19 0.18 0.16 0.14 0.25 0.41 0.44 0.31 0.24 0.19 0.16 0.15 0.08 0.05 0.01 0.00 0.00 0.00 0.00 0.00 0.00 0.01 0.01 0.02 0.03 0.02 0.02 0.02 0.02 0.03 0.02
0.03 0.05 0.08 0.12 0.15 0.17 0.16 0.14 0.19 0.22 0.18 0.12 0.14 0.20 0.11 0.03 0.02 0.02 0.05 0.09 0.11 0.10 0.09 0.11 0.13 0.13 0.07 0.01 0.00 0.00 0.00 0.00 0.00 0.00 0.01 0.02 0.04 0.05 0.05 0.08 0.09 0.07 0.05
0.02 0.04 0.10 0.16 0.14 0.18 0.19 0.16 0.18 0.21 0.23 0.22 0.17 0.15 0.12 0.08 0.05 0.02 0.01 0.01 0.02 0.02 0.04 0.05 0.04 0.05 0.07 0.05 0.03 0.01 0.01 0.00 0.00 0.00 0.00 0.02 0.04 0.05 0.08 0.12 0.13 0.13 0.12
0.01 0.03 0.04 0.10 0.14 0.16 0.21 0.28 0.26 0.21 0.20 0.26 0.24 0.22 0.24 0.30 0.26 0.16 0.10 0.03 0.01 0.02 0.02 0.03 0.03 0.02 0.02 0.02 0.02 0.02 0.03 0.02 0.01 0.00 0.00 0.01 0.03 0.05 0.08 0.12 0.18 0.20 0.17
0.00 0.03 0.09 0.09 0.09 0.11 0.18 0.29 0.31 0.31 0.27 0.26 0.25 0.24 0.20 0.20 0.24 0.29 0.32 0.23 0.19 0.12 0.08 0.05 0.03 0.02 0.02 0.06 0.11 0.14 0.14 0.10 0.05 0.02 0.01 0.01 0.05 0.09 0.08 0.10 0.12 0.18 0.25
0.01 0.01 0.05 0.10 0.12 0.09 0.09 0.18 0.26 0.32 0.34 0.25 0.20 0.17 0.20 0.20 0.21 0.22 0.21 0.15 0.12 0.09 0.08 0.05 0.02 0.01 0.02 0.02 0.03 0.04 0.07 0.09 0.09 0.07 0.05 0.03 0.04 0.07 0.10 0.09 0.09 0.13 0.18
0.00 0.01 0.02 0.07 0.12 0.16 0.15 0.15 0.16 0.21 0.30 0.37 0.33 0.22 0.16 0.13 0.16 0.20 0.22 0.24 0.23 0.14 0.07 0.02 0.01 0.01 0.02 0.02 0.03 0.05 0.03 0.02 0.03 0.05 0.06 0.06 0.07 0.08 0.10 0.12 0.15 0.15 0.15
0.00 0.00 0.01 0.04 0.09 0.14 0.17 0.18 0.17 0.21 0.24 0.22 0.25 0.30 0.31 0.27 0.31 0.34 0.37 0.40 0.48 0.49 0.29 0.11 0.10 0.10 0.16 0.19 0.19 0.18 0.12 0.09 0.10 0.08 0.07 0.06 0.04 0.03 0.02 0.01 0.01 0.02 0.02
0.00 0.00 0.01 0.03 0.07 0.10 0.15 0.18 0.17 0.15 0.23 0.27 0.23 0.20 0.20 0.22 0.26 0.33 0.42 0.48 0.56 0.63 0.59 0.13 0.09 0.10 0.14 0.19 0.20 0.23 0.16 0.13 0.08 0.05 0.04 0.05 0.05 0.05 0.03 0.02 0.01 0.01 0.01
0.00 0.00 0.01 0.03 0.04 0.08 0.10 0.11 0.13 0.14 0.13 0.11 0.14 0.15 0.14 0.19 0.19 0.18 0.21 0.27 0.37 0.47 0.51 0.17 0.07 0.06 0.11 0.10 0.10 0.11 0.08 0.07 0.04 0.05 0.07 0.09 0.07 0.05 0.04 0.03 0.03 0.03 0.04
0.00 0.00 0.00 0.04 0.06 0.08 0.12 0.14 0.14 0.13 0.13 0.11 0.12 0.12 0.12 0.15 0.15 0.16 0.19 0.19 0.21 0.24 0.32 0.24 0.12 0.06 0.07 0.07 0.09 0.11 0.10 0.07 0.05 0.09 0.15 0.13 0.12 0.12 0.12 0.11 0.12 0.13 0.13
0.00 0.00 0.00 0.00 0.02 0.06 0.10 0.13 0.12 0.14 0.13 0.11 0.12 0.14 0.11 0.13 0.13 0.13 0.16 0.15 0.14 0.16 0.21 0.27 0.24 0.18 0.13 0.15 0.22 0.25 0.23 0.23 0.20 0.24 0.31 0.32 0.34 0.35 0.34 0.33 0.33 0.32 0.30
0.01 0.01 0.01 0.01 0.01 0.02 0.03 0.07 0.12 0.16 0.11 0.11 0.11 0.10 0.11 0.13 0.15 0.17 0.19 0.21 0.24 0.35 0.46 0.47 0.43 0.40 0.35 0.29 0.37 0.39 0.36 0.31 0.29 0.34 0.43 0.35 0.30 0.26 0.24 0.24 0.25 0.23 0.20
0.08 0.12 0.09 0.07 0.06 0.06 0.04 0.05 0.06 0.08 0.12 0.17 0.19 0.18 0.17 0.23 0.33 0.36 0.35 0.35 0.51 0.66 0.75 0.77 0.69 0.68 0.65 0.59 0.52 0.46 0.47 0.38 0.37 0.30 0.25 0.28 0.31 0.38 0.47 0.57 0.54 0.51 0.44
0.23 0.20 0.18 0.17 0.16 0.11 0.11 0.09 0.08 0.08 0.09 0.11 0.14 0.20 0.25 0.36 0.35 0.38 0.36 0.44 0.54 0.62 0.67 0.73 0.65 0.62 0.51 0.43 0.39 0.47 0.55 0.62 0.63 0.41 0.41 0.52 0.58 0.63 0.59 0.57 0.63 0.62 0.58
0.11 0.13 0.11 0.07 0.06 0.12 0.18 0.15 0.21 0.16 0.17 0.17 0.16 0.11 0.11 0.18 0.28 0.26 0.37 0.40 0.40 0.50 0.55 0.57 0.62 0.63 0.62 0.57 0.60 0.65 0.74 0.86 0.91 0.73 0.58 0.65 0.64 0.71 0.68 0.62 0.65 0.54 0.47
0.39 0.55 0.29 0.26 0.27 0.39 0.36 0.24 0.28 0.18 0.13 0.08 0.09 0.13 0.16 0.17 0.22 0.23 0.21 0.23 0.26 0.30 0.35 0.36 0.40 0.40 0.38 0.34 0.38 0.45 0.44 0.50 0.61 0.56 0.50 0.48 0.48 0.58 0.66 0.69 0.75 0.60 0.48
0.44 0.59 0.39 0.36 0.43 0.39 0.51 0.51 0.44 0.32 0.17 0.12 0.14 0.15 0.15 0.13 0.24 0.21 0.10 0.11 0.13 0.14 0.21 0.22 0.18 0.19 0.21 0.18 0.16 0.17 0.22 0.26 0.33 0.37 0.36 0.36 0.34 0.39 0.45 0.43 0.38 0.42 0.36
0.35 0.42 0.37 0.28 0.31 0.26 0.31 0.39 0.43 0.38 0.22 0.15 0.12 0.14 0.20 0.14 0.19 0.17 0.11 0.13 0.15 0.15 0.13 0.13 0.13 0.14 0.16 0.18 0.23 0.21 0.22 0.23 0.24 0.22 0.18 0.22 0.22 0.26 0.32 0.25 0.22 0.20 0.19

GFSMA_prec_precacc24_165.txt.gz
Total_Precipitation_Accumulation
0.12 0.10 0.08 0.08 0.08 0.09 0.09 0.10 0.06 0.03 0.02 0.01 0.00 0.00 0.00 0.00 0.00 0.00 0.00 0.00 0.00 0.00 0.00 0.00 0.02 0.01 0.00 0.00 0.00 0.00 0.00 0.00 0.00 0.00 0.00 0.00 0.00 0.00 0.00 0.00 0.00 0.01 0.01
0.10 0.10 0.07 0.05 0.05 0.06 0.05 0.08 0.09 0.05 0.03 0.04 0.01 0.00 0.00 0.00 0.00 0.00 0.00 0.00 0.00 0.00 0.00 0.00 0.00 0.01 0.01 0.01 0.00 0.00 0.00 0.00 0.00 0.01 0.01 0.00 0.01 0.00 0.00 0.02 0.04 0.04 0.04
0.12 0.16 0.13 0.11 0.07 0.10 0.14 0.13 0.09 0.08 0.06 0.04 0.03 0.05 0.03 0.01 0.00 0.00 0.00 0.00 0.00 0.00 0.00 0.00 0.00 0.00 0.01 0.02 0.04 0.06 0.05 0.08 0.10 0.08 0.08 0.11 0.11 0.10 0.09 0.08 0.08 0.03 0.03
0.09 0.19 0.21 0.10 0.27 0.32 0.34 0.26 0.24 0.14 0.08 0.09 0.06 0.04 0.05 0.08 0.04 0.02 0.00 0.00 0.00 0.00 0.00 0.00 0.00 0.00 0.00 0.01 0.02 0.04 0.05 0.07 0.07 0.05 0.05 0.08 0.07 0.09 0.07 0.04 0.01 0.01 0.01
0.07 0.10 0.17 0.18 0.30 0.35 0.36 0.31 0.34 0.31 0.25 0.24 0.25 0.18 0.08 0.05 0.09 0.10 0.08 0.05 0.02 0.01 0.00 0.00 0.00 0.00 0.00 0.00 0.00 0.01 0.02 0.03 0.03 0.02 0.02 0.03 0.04 0.05 0.02 0.01 0.01 0.01 0.00
0.14 0.19 0.15 0.15 0.25 0.23 0.22 0.24 0.23 0.28 0.31 0.35 0.31 0.26 0.23 0.21 0.20 0.17 0.17 0.14 0.09 0.10 0.13 0.11 0.05 0.00 0.00 0.00 0.00 0.00 0.00 0.01 0.01 0.01 0.02 0.02 0.02 0.02 0.01 0.01 0.01 0.01 0.00
0.09 0.17 0.13 0.12 0.19 0.15 0.12 0.21 0.21 0.21 0.21 0.27 0.33 0.31 0.31 0.50 0.69 0.70 0.59 0.51 0.44 0.40 0.40 0.29 0.14 0.04 0.01 0.00 0.00 0.00 0.00 0.00 0.00 0.01 0.01 0.02 0.03 0.02 0.01 0.00 0.01 0.01 0.01
0.02 0.04 0.06 0.09 0.14 0.15 0.14 0.16 0.21 0.18 0.13 0.15 0.21 0.21 0.19 0.16 0.27 0.41 0.45 0.31 0.24 0.19 0.17 0.20 0.26 0.21 0.10 0.04 0.01 0.00 0.00 0.00 0.00 0.01 0.03 0.03 0.05 0.03 0.02 0.02 0.02 0.03 0.02
0.00 0.03 0.06 0.10 0.11 0.16 0.15 0.14 0.19 0.22 0.18 0.12 0.14 0.21 0.12 0.04 0.03 0.03 0.06 0.10 0.11 0.11 0.09 0.11 0.14 0.18 0.17 0.11 0.05 0.02 0.01 0.00 0.00 0.00 0.01 0.03 0.05 0.07 0.06 0.08 0.09 0.08 0.07
0.00 0.02 0.07 0.13 0.13 0.16 0.17 0.16 0.18 0.21 0.23 0.22 0.17 0.15 0.13 0.10 0.07 0.04 0.04 0.04 0.03 0.03 0.04 0.05 0.05 0.07 0.10 0.10 0.08 0.07 0.07 0.06 0.02 0.00 0.00 0.02 0.04 0.05 0.08 0.13 0.14 0.14 0.13
0.00 0.00 0.02 0.08 0.13 0.16 0.19 0.26 0.26 0.21 0.20 0.26 0.24 0.22 0.24 0.31 0.28 0.19 0.11 0.04 0.02 0.02 0.03 0.03 0.03 0.02 0.02 0.02 0.02 0.02 0.04 0.03 0.02 0.01 0.00 0.01 0.03 0.05 0.08 0.13 0.20 0.20 0.18
0.00 0.00 0.02 0.03 0.06 0.10 0.16 0.23 0.29 0.31 0.26 0.25 0.25 0.24 0.20 0.20 0.25 0.31 0.33 0.24 0.20 0.12 0.09 0.06 0.04 0.03 0.03 0.06 0.11 0.14 0.14 0.10 0.05 0.02 0.01 0.01 0.05 0.09 0.09 0.11 0.15 0.20 0.27
0.00 0.00 0.01 0.02 0.04 0.05 0.09 0.16 0.24 0.30 0.32 0.24 0.19 0.17 0.20 0.20 0.21 0.22 0.21 0.16 0.14 0.10 0.09 0.05 0.04 0.03 0.04 0.03 0.03 0.04 0.07 0.09 0.09 0.07 0.05 0.05 0.08 0.12 0.13 0.12 0.12 0.16 0.21
0.00 0.00 0.00 0.02 0.04 0.09 0.12 0.13 0.16 0.20 0.27 0.34 0.31 0.20 0.15 0.12 0.16 0.20 0.22 0.24 0.23 0.14 0.08 0.03 0.01 0.01 0.02 0.03 0.04 0.06 0.03 0.02 0.03 0.05 0.06 0.07 0.09 0.12 0.13 0.14 0.18 0.21 0.22
0.00 0.00 0.00 0.01 0.03 0.07 0.11 0.15 0.16 0.19 0.22 0.21 0.25 0.29 0.29 0.26 0.30 0.33 0.37 0.40 0.48 0.49 0.29 0.11 0.10 0.10 0.15 0.18 0.18 0.19 0.12 0.09 0.10 0.08 0.07 0.06 0.05 0.03 0.02 0.02 0.02 0.03 0.05
0.00 0.00 0.00 0.00 0.01 0.05 0.10 0.12 0.13 0.13 0.21 0.25 0.23 0.20 0.19 0.21 0.25 0.33 0.43 0.49 0.57 0.63 0.58 0.13 0.09 0.10 0.12 0.17 0.19 0.23 0.16 0.13 0.08 0.05 0.04 0.05 0.05 0.05 0.03 0.02 0.02 0.04 0.05
0.00 0.00 0.00 0.00 0.00 0.01 0.05 0.08 0.09 0.11 0.12 0.11 0.14 0.15 0.14 0.19 0.17 0.17 0.20 0.26 0.37 0.47 0.50 0.16 0.06 0.05 0.08 0.09 0.09 0.10 0.08 0.06 0.04 0.05 0.07 0.09 0.08 0.06 0.05 0.05 0.05 0.05 0.05
0.00 0.00 0.00 0.00 0.00 0.00 0.03 0.09 0.11 0.11 0.11 0.11 0.12 0.12 0.12 0.15 0.15 0.17 0.19 0.19 0.21 0.24 0.32 0.20 0.06 0.02 0.04 0.04 0.07 0.09 0.08 0.06 0.05 0.08 0.15 0.14 0.14 0.15 0.14 0.15 0.16 0.17 0.17
0.00 0.00 0.00 0.00 0.00 0.00 0.00 0.04 0.08 0.12 0.11 0.09 0.11 0.13 0.10 0.13 0.13 0.13 0.16 0.14 0.13 0.14 0.18 0.22 0.18 0.14 0.11 0.13 0.19 0.21 0.22 0.22 0.19 0.23 0.32 0.35 0.38 0.39 0.39 0.38 0.38 0.36 0.34
0.00 0.00 0.01 0.01 0.01 0.01 0.01 0.02 0.06 0.13 0.10 0.10 0.11 0.10 0.11 0.12 0.14 0.15 0.17 0.19 0.21 0.29 0.39 0.41 0.36 0.35 0.33 0.27 0.34 0.32 0.31 0.26 0.24 0.26 0.33 0.31 0.33 0.32 0.31 0.29 0.30 0.27 0.27
0.06 0.08 0.07 0.06 0.05 0.06 0.04 0.05 0.05 0.06 0.11 0.16 0.18 0.17 0.14 0.15 0.21 0.22 0.21 0.23 0.37 0.51 0.57 0.62 0.57 0.57 0.58 0.54 0.47 0.39 0.36 0.25 0.24 0.17 0.14 0.20 0.30 0.39 0.49 0.60 0.55 0.53 0.50
0.08 0.08 0.11 0.12 0.13 0.09 0.10 0.08 0.06 0.05 0.06 0.07 0.07 0.10 0.13 0.15 0.16 0.20 0.20 0.25 0.31 0.35 0.36 0.41 0.40 0.42 0.37 0.34 0.31 0.35 0.38 0.38 0.40 0.30 0.33 0.41 0.51 0.61 0.62 0.62 0.70 0.66 0.64
0.01 0.03 0.06 0.04 0.03 0.03 0.07 0.07 0.11 0.09 0.10 0.09 0.09 0.07 0.06 0.08 0.12 0.12 0.20 0.21 0.21 0.29 0.31 0.32 0.36 0.43 0.45 0.44 0.46 0.49 0.57 0.70 0.74 0.59 0.48 0.54 0.59 0.70 0.72 0.70 0.72 0.60 0.55
0.01 0.06 0.02 0.02 0.03 0.05 0.06 0.07 0.08 0.04 0.05 0.04 0.05 0.07 0.08 0.09 0.14 0.15 0.13 0.16 0.18 0.22 0.28 0.28 0.28 0.27 0.23 0.18 0.18 0.26 0.31 0.37 0.45 0.44 0.40 0.41 0.44 0.55 0.63 0.67 0.80 0.71 0.65
0.07 0.15 0.12 0.10 0.16 0.19 0.33 0.36 0.35 0.29 0.14 0.09 0.12 0.14 0.13 0.11 0.21 0.19 0.09 0.10 0.13 0.13 0.21 0.22 0.17 0.19 0.20 0.16 0.14 0.14 0.18 0.22 0.28 0.30 0.28 0.27 0.27 0.31 0.35 0.36 0.35 0.42 0.38
0.13 0.25 0.26 0.21 0.24 0.22 0.28 0.37 0.42 0.38 0.22 0.15 0.12 0.14 0.20 0.14 0.19 0.17 0.11 0.13 0.15 0.15 0.13 0.13 0.13 0.14 0.16 0.18 0.23 0.21 0.22 0.23 0.23 0.20 0.14 0.15 0.15 0.13 0.14 0.13 0.15 0.15 0.15

GFSMA_prec_precacc24_168.txt.gz
Total_Precipitation_Accumulation
0.09 0.08 0.07 0.10 0.09 0.14 0.15 0.18 0.15 0.09 0.07 0.02 0.00 0.00 0.00 0.00 0.00 0.00 0.00 0.00 0.00 0.00 0.00 0.00 0.02 0.02 0.01 0.00 0.00 0.00 0.00 0.00 0.00 0.00 0.00 0.00 0.00 0.00 0.00 0.00 0.01 0.01 0.01
0.10 0.09 0.07 0.06 0.05 0.07 0.07 0.12 0.16 0.14 0.12 0.13 0.05 0.02 0.00 0.00 0.00 0.00 0.00 0.00 0.00 0.00 0.00 0.00 0.00 0.01 0.02 0.02 0.01 0.00 0.00 0.00 0.00 0.01 0.01 0.00 0.01 0.01 0.00 0.02 0.05 0.05 0.05
0.12 0.14 0.11 0.11 0.07 0.10 0.15 0.15 0.13 0.14 0.13 0.13 0.13 0.16 0.11 0.05 0.01 0.00 0.00 0.00 0.00 0.00 0.00 0.00 0.00 0.00 0.01 0.02 0.06 0.06 0.06 0.08 0.10 0.09 0.08 0.11 0.11 0.11 0.10 0.09 0.09 0.04 0.03
0.09 0.16 0.18 0.10 0.27 0.32 0.34 0.26 0.25 0.16 0.11 0.14 0.11 0.10 0.12 0.18 0.16 0.09 0.04 0.01 0.00 0.00 0.00 0.00 0.00 0.00 0.00 0.00 0.01 0.04 0.10 0.10 0.08 0.05 0.05 0.08 0.07 0.09 0.07 0.04 0.04 0.03 0.01
0.06 0.09 0.13 0.17 0.29 0.35 0.36 0.31 0.34 0.31 0.26 0.27 0.28 0.22 0.12 0.09 0.15 0.19 0.16 0.11 0.04 0.02 0.01 0.01 0.02 0.00 0.00 0.00 0.00 0.01 0.03 0.04 0.04 0.03 0.03 0.03 0.04 0.05 0.02 0.02 0.03 0.02 0.01
0.09 0.13 0.12 0.12 0.20 0.22 0.22 0.24 0.23 0.28 0.31 0.35 0.34 0.30 0.28 0.26 0.23 0.21 0.25 0.22 0.16 0.15 0.15 0.13 0.10 0.05 0.02 0.00 0.00 0.00 0.00 0.01 0.02 0.02 0.02 0.02 0.02 0.02 0.01 0.01 0.02 0.01 0.00
0.04 0.10 0.09 0.10 0.13 0.12 0.12 0.21 0.21 0.21 0.21 0.27 0.34 0.32 0.32 0.53 0.74 0.76 0.65 0.55 0.49 0.47 0.48 0.33 0.17 0.07 0.02 0.01 0.00 0.00 0.00 0.00 0.00 0.02 0.02 0.02 0.03 0.02 0.01 0.00 0.01 0.01 0.01
0.00 0.02 0.05 0.07 0.12 0.13 0.14 0.16 0.21 0.18 0.13 0.15 0.21 0.21 0.19 0.17 0.29 0.43 0.47 0.33 0.25 0.25 0.21 0.23 0.28 0.21 0.10 0.04 0.02 0.01 0.00 0.00 0.00 0.01 0.02 0.03 0.05 0.04 0.02 0.02 0.02 0.03 0.03
0.00 0.01 0.04 0.09 0.10 0.13 0.13 0.13 0.19 0.22 0.18 0.12 0.14 0.21 0.13 0.04 0.03 0.04 0.07 0.11 0.12 0.12 0.12 0.13 0.15 0.18 0.17 0.11 0.05 0.03 0.02 0.01 0.01 0.01 0.01 0.03 0.06 0.08 0.06 0.08 0.09 0.07 0.06
0.00 0.00 0.02 0.07 0.10 0.13 0.13 0.14 0.17 0.21 0.23 0.22 0.17 0.15 0.13 0.10 0.08 0.05 0.07 0.10 0.11 0.10 0.10 0.08 0.07 0.11 0.14 0.11 0.11 0.10 0.11 0.12 0.08 0.01 0.00 0.02 0.05 0.06 0.09 0.15 0.15 0.14 0.12
0.00 0.00 0.01 0.04 0.07 0.13 0.16 0.22 0.21 0.20 0.21 0.27 0.25 0.22 0.24 0.31 0.28 0.19 0.11 0.04 0.04 0.06 0.09 0.08 0.05 0.04 0.04 0.04 0.03 0.03 0.06 0.05 0.05 0.02 0.00 0.01 0.04 0.05 0.09 0.14 0.21 0.22 0.18
0.00 0.00 0.00 0.01 0.02 0.05 0.11 0.18 0.23 0.25 0.24 0.26 0.27 0.25 0.20 0.20 0.25 0.31 0.34 0.24 0.20 0.12 0.09 0.07 0.06 0.06 0.07 0.10 0.13 0.15 0.14 0.11 0.06 0.03 0.03 0.05 0.10 0.11 0.09 0.12 0.18 0.25 0.31
0.00 0.00 0.00 0.00 0.00 0.01 0.04 0.10 0.16 0.23 0.27 0.23 0.22 0.19 0.20 0.19 0.21 0.22 0.21 0.16 0.13 0.10 0.09 0.05 0.04 0.05 0.06 0.06 0.07 0.06 0.08 0.11 0.09 0.07 0.07 0.10 0.13 0.18 0.19 0.18 0.17 0.21 0.26
0.00 0.00 0.00 0.00 0.01 0.01 0.02 0.05 0.10 0.13 0.21 0.29 0.30 0.22 0.14 0.11 0.15 0.18 0.20 0.21 0.18 0.11 0.07 0.03 0.01 0.01 0.02 0.03 0.05 0.07 0.04 0.03 0.04 0.05 0.06 0.07 0.09 0.12 0.15 0.18 0.24 0.28 0.30
0.00 0.00 0.00 0.00 0.00 0.00 0.01 0.02 0.05 0.07 0.13 0.15 0.19 0.24 0.24 0.19 0.18 0.22 0.27 0.27 0.35 0.40 0.26 0.11 0.10 0.10 0.15 0.18 0.18 0.19 0.13 0.09 0.10 0.07 0.07 0.06 0.05 0.03 0.02 0.02 0.02 0.04 0.06
0.00 0.00 0.00 0.00 0.00 0.01 0.02 0.03 0.03 0.04 0.11 0.16 0.15 0.13 0.14 0.16 0.18 0.24 0.33 0.39 0.46 0.53 0.52 0.13 0.09 0.10 0.12 0.17 0.19 0.23 0.16 0.12 0.07 0.04 0.03 0.04 0.05 0.05 0.03 0.02 0.02 0.04 0.06
0.00 0.00 0.00 0.00 0.00 0.00 0.00 0.01 0.02 0.04 0.05 0.05 0.07 0.09 0.09 0.15 0.16 0.16 0.17 0.21 0.30 0.39 0.43 0.15 0.05 0.05 0.08 0.09 0.09 0.10 0.07 0.06 0.04 0.04 0.07 0.08 0.08 0.06 0.05 0.05 0.06 0.06 0.07
0.00 0.00 0.00 0.00 0.00 0.00 0.00 0.00 0.00 0.03 0.06 0.07 0.09 0.09 0.09 0.13 0.14 0.16 0.18 0.19 0.21 0.23 0.30 0.19 0.06 0.02 0.04 0.04 0.07 0.09 0.08 0.06 0.05 0.08 0.15 0.14 0.14 0.14 0.14 0.14 0.16 0.17 0.18
0.00 0.00 0.00 0.00 0.00 0.00 0.00 0.00 0.00 0.00 0.03 0.05 0.07 0.09 0.07 0.11 0.11 0.12 0.15 0.14 0.13 0.14 0.17 0.21 0.17 0.13 0.11 0.13 0.18 0.21 0.20 0.20 0.19 0.23 0.32 0.33 0.36 0.38 0.38 0.37 0.38 0.36 0.34
0.00 0.00 0.01 0.01 0.00 0.01 0.00 0.00 0.00 0.00 0.01 0.03 0.04 0.05 0.08 0.10 0.13 0.14 0.16 0.19 0.21 0.29 0.38 0.39 0.33 0.31 0.29 0.25 0.31 0.32 0.30 0.25 0.23 0.24 0.30 0.29 0.29 0.28 0.28 0.27 0.28 0.26 0.26
0.01 0.02 0.03 0.02 0.01 0.01 0.01 0.01 0.00 0.01 0.03 0.06 0.09 0.13 0.13 0.14 0.21 0.23 0.21 0.22 0.33 0.42 0.44 0.43 0.39 0.42 0.46 0.45 0.41 0.35 0.26 0.15 0.15 0.11 0.09 0.15 0.24 0.32 0.44 0.56 0.51 0.50 0.48
0.01 0.00 0.01 0.01 0.01 0.02 0.03 0.04 0.02 0.01 0.03 0.05 0.05 0.08 0.13 0.15 0.15 0.16 0.16 0.21 0.27 0.31 0.31 0.36 0.33 0.34 0.33 0.32 0.28 0.28 0.29 0.29 0.29 0.26 0.30 0.36 0.44 0.52 0.56 0.57 0.66 0.64 0.63
0.00 0.00 0.00 0.00 0.00 0.01 0.04 0.05 0.08 0.06 0.08 0.08 0.09 0.06 0.05 0.06 0.08 0.09 0.12 0.13 0.14 0.20 0.25 0.29 0.34 0.41 0.42 0.41 0.41 0.46 0.55 0.68 0.72 0.57 0.45 0.50 0.58 0.70 0.72 0.70 0.69 0.56 0.50
0.00 0.00 0.00 0.00 0.00 0.01 0.01 0.02 0.04 0.01 0.02 0.02 0.02 0.03 0.03 0.04 0.09 0.11 0.11 0.13 0.16 0.20 0.26 0.27 0.27 0.26 0.22 0.17 0.16 0.22 0.27 0.33 0.43 0.43 0.38 0.39 0.43 0.55 0.63 0.67 0.75 0.64 0.59
0.00 0.00 0.00 0.00 0.00 0.00 0.02 0.06 0.06 0.03 0.02 0.02 0.01 0.03 0.05 0.05 0.15 0.15 0.08 0.10 0.12 0.13 0.21 0.21 0.17 0.19 0.19 0.16 0.14 0.14 0.18 0.22 0.28 0.30 0.28 0.27 0.27 0.31 0.35 0.36 0.34 0.35 0.31
0.00 0.00 0.01 0.02 0.05 0.04 0.08 0.18 0.21 0.23 0.13 0.09 0.08 0.11 0.17 0.13 0.18 0.17 0.11 0.13 0.15 0.15 0.13 0.13 0.13 0.14 0.16 0.18 0.23 0.20 0.22 0.23 0.23 0.20 0.14 0.15 0.15 0.13 0.14 0.13 0.15 0.14 0.10

GFSMA_prec_precacc24_174.txt.gz
Total_Precipitation_Accumulation
0.09 0.08 0.07 0.10 0.09 0.15 0.17 0.22 0.20 0.15 0.15 0.12 0.10 0.08 0.04 0.01 0.01 0.00 0.00 0.00 0.00 0.00 0.00 0.00 0.02 0.02 0.01 0.00 0.00 0.00 0.00 0.00 0.00 0.00 0.00 0.00 0.00 0.00 0.00 0.00 0.01 0.01 0.02
0.10 0.09 0.07 0.06 0.05 0.07 0.07 0.12 0.17 0.16 0.16 0.19 0.12 0.15 0.14 0.11 0.06 0.04 0.03 0.01 0.00 0.00 0.01 0.01 0.01 0.01 0.02 0.03 0.01 0.01 0.00 0.00 0.00 0.00 0.00 0.00 0.01 0.01 0.00 0.02 0.04 0.06 0.06
0.10 0.12 0.11 0.11 0.07 0.10 0.15 0.15 0.13 0.14 0.14 0.16 0.18 0.23 0.26 0.21 0.20 0.17 0.12 0.06 0.02 0.00 0.00 0.01 0.02 0.01 0.01 0.02 0.07 0.08 0.06 0.05 0.07 0.06 0.05 0.08 0.09 0.11 0.09 0.07 0.08 0.04 0.03
0.04 0.09 0.12 0.09 0.21 0.27 0.31 0.26 0.25 0.16 0.11 0.14 0.12 0.14 0.17 0.28 0.28 0.25 0.27 0.21 0.10 0.03 0.02 0.01 0.01 0.01 0.01 0.01 0.01 0.03 0.10 0.11 0.09 0.06 0.05 0.08 0.06 0.04 0.03 0.02 0.04 0.03 0.02
0.01 0.03 0.07 0.11 0.18 0.28 0.33 0.31 0.34 0.31 0.26 0.27 0.28 0.23 0.16 0.15 0.23 0.30 0.29 0.28 0.22 0.16 0.10 0.07 0.05 0.04 0.04 0.03 0.00 0.01 0.03 0.07 0.11 0.10 0.08 0.05 0.04 0.04 0.02 0.02 0.04 0.02 0.01
0.00 0.01 0.04 0.06 0.10 0.13 0.19 0.23 0.23 0.28 0.30 0.35 0.34 0.30 0.28 0.28 0.27 0.26 0.34 0.39 0.38 0.39 0.33 0.27 0.19 0.12 0.10 0.07 0.02 0.00 0.01 0.04 0.07 0.08 0.08 0.06 0.05 0.05 0.04 0.02 0.03 0.01 0.00
0.00 0.00 0.01 0.04 0.06 0.07 0.08 0.13 0.18 0.21 0.21 0.26 0.33 0.32 0.32 0.53 0.75 0.77 0.68 0.61 0.60 0.58 0.68 0.53 0.35 0.21 0.17 0.17 0.09 0.02 0.01 0.02 0.04 0.07 0.09 0.10 0.09 0.08 0.05 0.04 0.03 0.02 0.01
0.00 0.00 0.00 0.01 0.03 0.05 0.06 0.09 0.15 0.16 0.13 0.13 0.20 0.21 0.19 0.17 0.29 0.43 0.47 0.34 0.26 0.37 0.40 0.47 0.51 0.39 0.26 0.16 0.14 0.12 0.05 0.01 0.01 0.03 0.10 0.11 0.15 0.16 0.13 0.10 0.07 0.06 0.03
0.00 0.00 0.00 0.00 0.01 0.04 0.05 0.06 0.09 0.14 0.15 0.10 0.12 0.20 0.13 0.05 0.04 0.05 0.09 0.13 0.15 0.15 0.17 0.21 0.25 0.27 0.23 0.19 0.15 0.13 0.12 0.07 0.04 0.01 0.03 0.09 0.15 0.21 0.20 0.19 0.16 0.14 0.10
0.00 0.00 0.00 0.00 0.00 0.01 0.02 0.05 0.09 0.11 0.15 0.17 0.13 0.14 0.13 0.12 0.10 0.06 0.07 0.14 0.17 0.19 0.22 0.22 0.20 0.24 0.28 0.21 0.20 0.19 0.21 0.20 0.17 0.03 0.01 0.06 0.13 0.18 0.26 0.37 0.34 0.32 0.27
0.00 0.00 0.00 0.01 0.01 0.01 0.01 0.02 0.06 0.09 0.12 0.18 0.18 0.13 0.19 0.30 0.29 0.23 0.12 0.04 0.04 0.09 0.16 0.19 0.17 0.16 0.15 0.13 0.08 0.09 0.12 0.09 0.09 0.02 0.01 0.06 0.17 0.25 0.32 0.43 0.57 0.69 0.77
0.00 0.00 0.00 0.00 0.00 0.00 0.00 0.01 0.02 0.04 0.08 0.12 0.16 0.16 0.14 0.17 0.25 0.33 0.38 0.25 0.20 0.12 0.10 0.09 0.09 0.11 0.11 0.12 0.16 0.20 0.20 0.17 0.11 0.05 0.16 0.13 0.18 0.19 0.17 0.20 0.27 0.36 0.43
0.00 0.00 0.00 0.00 0.00 0.00 0.00 0.00 0.01 0.01 0.03 0.06 0.09 0.11 0.14 0.15 0.17 0.22 0.24 0.17 0.13 0.10 0.09 0.05 0.04 0.05 0.07 0.08 0.08 0.07 0.10 0.13 0.11 0.13 0.26 0.25 0.20 0.20 0.20 0.19 0.20 0.24 0.31
0.00 0.00 0.01 0.00 0.00 0.00 0.00 0.00 0.01 0.02 0.03 0.04 0.06 0.09 0.09 0.08 0.09 0.12 0.15 0.16 0.12 0.06 0.03 0.01 0.01 0.01 0.02 0.03 0.05 0.07 0.05 0.04 0.05 0.07 0.09 0.09 0.09 0.12 0.15 0.18 0.24 0.29 0.31
0.00 0.00 0.00 0.00 0.00 0.00 0.00 0.00 0.00 0.01 0.03 0.03 0.04 0.06 0.07 0.06 0.05 0.06 0.08 0.12 0.17 0.15 0.05 0.01 0.03 0.02 0.04 0.06 0.09 0.12 0.11 0.08 0.10 0.07 0.07 0.06 0.05 0.03 0.02 0.02 0.02 0.04 0.06
0.00 0.00 0.00 0.00 0.00 0.00 0.00 0.00 0.00 0.00 0.01 0.01 0.01 0.01 0.01 0.02 0.03 0.04 0.06 0.10 0.18 0.29 0.24 0.04 0.01 0.01 0.02 0.08 0.10 0.14 0.12 0.11 0.07 0.04 0.03 0.04 0.05 0.05 0.03 0.02 0.02 0.04 0.06
0.00 0.00 0.00 0.00 0.00 0.00 0.00 0.00 0.00 0.01 0.01 0.00 0.00 0.01 0.00 0.02 0.02 0.03 0.04 0.04 0.06 0.11 0.12 0.04 0.00 0.00 0.01 0.02 0.04 0.08 0.07 0.06 0.04 0.04 0.06 0.08 0.08 0.06 0.05 0.05 0.06 0.06 0.06
0.00 0.00 0.00 0.00 0.00 0.00 0.00 0.00 0.00 0.00 0.00 0.00 0.01 0.02 0.02 0.03 0.05 0.05 0.06 0.05 0.06 0.07 0.10 0.03 0.01 0.01 0.01 0.02 0.05 0.07 0.07 0.06 0.05 0.08 0.14 0.13 0.13 0.13 0.12 0.12 0.14 0.17 0.17
0.00 0.00 0.00 0.00 0.00 0.00 0.00 0.00 0.00 0.00 0.00 0.00 0.00 0.00 0.00 0.00 0.00 0.02 0.03 0.02 0.02 0.05 0.06 0.06 0.03 0.08 0.09 0.11 0.17 0.19 0.20 0.20 0.18 0.22 0.28 0.25 0.22 0.22 0.23 0.28 0.32 0.32 0.31
0.00 0.00 0.00 0.00 0.00 0.00 0.00 0.00 0.00 0.00 0.00 0.00 0.00 0.00 0.00 0.00 0.00 0.01 0.03 0.04 0.04 0.05 0.06 0.08 0.08 0.22 0.28 0.23 0.26 0.23 0.18 0.13 0.11 0.12 0.14 0.15 0.18 0.20 0.24 0.25 0.27 0.25 0.24
0.00 0.00 0.00 0.00 0.00 0.00 0.00 0.00 0.00 0.00 0.00 0.00 0.00 0.00 0.00 0.01 0.01 0.02 0.03 0.03 0.06 0.10 0.14 0.16 0.18 0.33 0.37 0.35 0.30 0.25 0.21 0.14 0.14 0.11 0.09 0.15 0.23 0.31 0.43 0.53 0.49 0.47 0.44
0.00 0.00 0.00 0.00 0.00 0.00 0.02 0.03 0.01 0.00 0.00 0.00 0.00 0.00 0.01 0.02 0.02 0.04 0.05 0.06 0.14 0.16 0.15 0.17 0.18 0.24 0.22 0.21 0.21 0.23 0.25 0.26 0.28 0.25 0.30 0.36 0.44 0.51 0.55 0.56 0.65 0.60 0.59
0.00 0.00 0.00 0.00 0.00 0.00 0.02 0.02 0.02 0.00 0.00 0.00 0.00 0.00 0.00 0.01 0.02 0.02 0.07 0.09 0.09 0.13 0.17 0.21 0.26 0.31 0.32 0.32 0.35 0.41 0.51 0.65 0.70 0.56 0.44 0.49 0.58 0.70 0.72 0.70 0.69 0.55 0.49
0.00 0.00 0.00 0.00 0.00 0.00 0.00 0.01 0.02 0.00 0.00 0.01 0.01 0.01 0.01 0.02 0.06 0.08 0.08 0.08 0.10 0.13 0.18 0.20 0.22 0.21 0.17 0.13 0.13 0.20 0.25 0.32 0.42 0.43 0.38 0.39 0.43 0.55 0.63 0.67 0.76 0.65 0.59
0.00 0.00 0.00 0.00 0.00 0.00 0.01 0.01 0.01 0.00 0.01 0.01 0.01 0.01 0.01 0.01 0.05 0.05 0.02 0.03 0.04 0.05 0.10 0.10 0.09 0.11 0.13 0.13 0.13 0.13 0.18 0.22 0.28 0.30 0.28 0.27 0.27 0.31 0.35 0.36 0.34 0.35 0.31
0.00 0.00 0.00 0.00 0.00 0.00 0.01 0.01 0.01 0.01 0.01 0.02 0.02 0.02 0.06 0.04 0.05 0.05 0.04 0.04 0.06 0.06 0.06 0.08 0.09 0.12 0.15 0.18 0.23 0.20 0.22 0.23 0.23 0.20 0.14 0.15 0.15 0.13 0.14 0.13 0.15 0.14 0.10

GFSMA_prec_precacc24_177.txt.gz
Total_Precipitation_Accumulation
0.09 0.08 0.07 0.10 0.09 0.15 0.17 0.22 0.20 0.15 0.15 0.12 0.10 0.08 0.05 0.02 0.03 0.03 0.02 0.02 0.01 0.00 0.00 0.01 0.02 0.02 0.02 0.00 0.00 0.00 0.00 0.00 0.00 0.00 0.00 0.00 0.00 0.00 0.00 0.00 0.01 0.01 0.02
0.05 0.07 0.06 0.06 0.05 0.07 0.07 0.12 0.17 0.16 0.16 0.19 0.12 0.15 0.14 0.12 0.07 0.06 0.05 0.05 0.06 0.03 0.02 0.02 0.02 0.04 0.04 0.03 0.01 0.01 0.01 0.00 0.00 0.00 0.00 0.00 0.01 0.01 0.00 0.02 0.03 0.05 0.06
0.01 0.03 0.05 0.06 0.06 0.08 0.15 0.15 0.12 0.14 0.12 0.16 0.18 0.23 0.26 0.21 0.20 0.17 0.13 0.08 0.08 0.07 0.05 0.04 0.05 0.06 0.07 0.04 0.07 0.09 0.07 0.04 0.06 0.05 0.04 0.08 0.09 0.10 0.07 0.05 0.06 0.04 0.03
0.00 0.00 0.02 0.03 0.05 0.09 0.16 0.19 0.16 0.14 0.11 0.13 0.12 0.14 0.17 0.28 0.28 0.25 0.27 0.21 0.12 0.09 0.08 0.06 0.06 0.06 0.06 0.05 0.02 0.05 0.12 0.09 0.09 0.07 0.07 0.09 0.07 0.05 0.04 0.03 0.04 0.03 0.02
0.00 0.00 0.00 0.01 0.03 0.07 0.12 0.15 0.19 0.22 0.23 0.24 0.25 0.22 0.15 0.15 0.23 0.30 0.29 0.28 0.23 0.17 0.13 0.18 0.20 0.19 0.16 0.09 0.03 0.04 0.07 0.13 0.17 0.14 0.11 0.07 0.05 0.06 0.05 0.05 0.06 0.03 0.01
0.00 0.00 0.00 0.00 0.02 0.04 0.06 0.10 0.13 0.18 0.23 0.29 0.32 0.27 0.26 0.28 0.27 0.26 0.34 0.39 0.38 0.39 0.33 0.31 0.30 0.27 0.31 0.20 0.10 0.05 0.07 0.13 0.20 0.16 0.12 0.11 0.09 0.08 0.06 0.05 0.05 0.03 0.00
0.00 0.00 0.00 0.00 0.00 0.02 0.03 0.06 0.09 0.12 0.15 0.20 0.31 0.32 0.31 0.53 0.75 0.77 0.68 0.61 0.60 0.58 0.68 0.53 0.36 0.24 0.25 0.37 0.37 0.12 0.05 0.08 0.14 0.18 0.16 0.17 0.17 0.13 0.08 0.07 0.06 0.03 0.02
0.00 0.00 0.00 0.00 0.00 0.00 0.02 0.04 0.07 0.09 0.08 0.10 0.16 0.19 0.19 0.17 0.29 0.43 0.47 0.34 0.26 0.37 0.41 0.47 0.51 0.39 0.27 0.19 0.20 0.28 0.19 0.05 0.03 0.10 0.19 0.18 0.19 0.19 0.14 0.12 0.12 0.10 0.07
0.00 0.00 0.00 0.00 0.00 0.00 0.00 0.01 0.04 0.06 0.06 0.05 0.07 0.15 0.12 0.05 0.04 0.05 0.09 0.13 0.15 0.15 0.17 0.22 0.26 0.28 0.25 0.21 0.19 0.18 0.21 0.26 0.16 0.07 0.06 0.13 0.19 0.23 0.22 0.23 0.21 0.17 0.15
0.00 0.00 0.00 0.00 0.00 0.00 0.00 0.00 0.01 0.04 0.07 0.08 0.07 0.06 0.10 0.11 0.10 0.06 0.07 0.14 0.17 0.19 0.23 0.23 0.22 0.27 0.31 0.23 0.21 0.23 0.28 0.30 0.23 0.07 0.05 0.10 0.18 0.24 0.34 0.45 0.42 0.41 0.46
0.00 0.00 0.00 0.01 0.01 0.01 0.01 0.01 0.01 0.01 0.03 0.09 0.10 0.06 0.06 0.11 0.14 0.17 0.09 0.03 0.04 0.09 0.16 0.19 0.20 0.23 0.21 0.16 0.10 0.10 0.14 0.14 0.12 0.03 0.03 0.15 0.31 0.40 0.45 0.52 0.64 0.82 1.21
0.00 0.00 0.00 0.00 0.00 0.00 0.00 0.00 0.00 0.00 0.01 0.02 0.06 0.08 0.09 0.08 0.09 0.14 0.19 0.12 0.14 0.11 0.10 0.10 0.10 0.16 0.15 0.14 0.16 0.23 0.22 0.19 0.12 0.05 0.17 0.19 0.26 0.26 0.18 0.19 0.26 0.34 0.40
0.00 0.00 0.00 0.00 0.00 0.00 0.00 0.00 0.01 0.01 0.01 0.02 0.05 0.06 0.08 0.08 0.12 0.16 0.18 0.13 0.09 0.09 0.08 0.05 0.05 0.08 0.08 0.10 0.09 0.07 0.10 0.13 0.12 0.13 0.31 0.30 0.22 0.20 0.18 0.17 0.17 0.20 0.27
0.00 0.00 0.01 0.00 0.00 0.00 0.00 0.00 0.01 0.02 0.02 0.03 0.04 0.08 0.07 0.06 0.07 0.08 0.08 0.08 0.07 0.04 0.02 0.01 0.00 0.04 0.02 0.02 0.03 0.05 0.03 0.03 0.05 0.08 0.10 0.10 0.09 0.12 0.14 0.16 0.21 0.26 0.29
0.00 0.00 0.00 0.00 0.00 0.00 0.00 0.00 0.00 0.01 0.02 0.03 0.03 0.05 0.05 0.05 0.04 0.04 0.04 0.06 0.07 0.04 0.01 0.00 0.00 0.00 0.00 0.02 0.03 0.03 0.03 0.04 0.07 0.07 0.06 0.06 0.05 0.03 0.02 0.02 0.02 0.04 0.06
0.00 0.00 0.00 0.00 0.00 0.00 0.00 0.00 0.00 0.00 0.00 0.01 0.01 0.01 0.01 0.01 0.02 0.03 0.05 0.06 0.10 0.16 0.09 0.00 0.01 0.01 0.00 0.03 0.03 0.04 0.06 0.08 0.06 0.04 0.03 0.04 0.05 0.05 0.03 0.02 0.02 0.04 0.07
0.00 0.00 0.00 0.00 0.00 0.00 0.00 0.00 0.00 0.01 0.00 0.00 0.00 0.00 0.00 0.00 0.01 0.02 0.03 0.02 0.04 0.09 0.08 0.01 0.00 0.00 0.00 0.01 0.01 0.02 0.04 0.04 0.03 0.03 0.06 0.07 0.07 0.05 0.05 0.05 0.06 0.06 0.07
0.00 0.00 0.00 0.00 0.00 0.00 0.00 0.00 0.00 0.00 0.00 0.00 0.01 0.01 0.01 0.02 0.03 0.03 0.04 0.04 0.05 0.06 0.08 0.03 0.01 0.00 0.00 0.00 0.01 0.02 0.02 0.02 0.03 0.08 0.13 0.13 0.13 0.13 0.12 0.10 0.10 0.10 0.10
0.00 0.00 0.00 0.00 0.00 0.00 0.00 0.00 0.00 0.00 0.00 0.00 0.00 0.00 0.00 0.00 0.00 0.00 0.00 0.00 0.01 0.03 0.04 0.04 0.02 0.02 0.02 0.01 0.01 0.01 0.02 0.09 0.12 0.19 0.28 0.25 0.22 0.21 0.18 0.16 0.14 0.12 0.12
0.00 0.00 0.00 0.00 0.00 0.00 0.00 0.00 0.00 0.00 0.00 0.00 0.00 0.00 0.00 0.00 0.00 0.00 0.00 0.00 0.00 0.01 0.03 0.04 0.03 0.03 0.05 0.04 0.07 0.04 0.03 0.05 0.06 0.11 0.14 0.15 0.17 0.19 0.22 0.21 0.22 0.19 0.20
0.00 0.00 0.00 0.00 0.00 0.00 0.00 0.00 0.00 0.00 0.00 0.00 0.00 0.00 0.00 0.01 0.02 0.01 0.01 0.00 0.01 0.02 0.03 0.07 0.07 0.07 0.07 0.09 0.09 0.12 0.14 0.12 0.14 0.11 0.09 0.15 0.23 0.31 0.42 0.53 0.48 0.47 0.44
0.00 0.00 0.00 0.00 0.00 0.00 0.02 0.02 0.01 0.00 0.00 0.00 0.00 0.00 0.01 0.02 0.02 0.04 0.04 0.04 0.03 0.02 0.02 0.06 0.10 0.12 0.13 0.15 0.17 0.19 0.22 0.24 0.25 0.25 0.30 0.36 0.44 0.51 0.55 0.57 0.66 0.61 0.59
0.00 0.00 0.00 0.00 0.00 0.00 0.01 0.02 0.02 0.00 0.00 0.00 0.00 0.00 0.00 0.01 0.02 0.01 0.06 0.06 0.06 0.06 0.06 0.06 0.15 0.25 0.25 0.24 0.28 0.35 0.48 0.64 0.68 0.55 0.44 0.49 0.58 0.70 0.72 0.70 0.69 0.56 0.49
0.00 0.00 0.00 0.00 0.00 0.00 0.00 0.01 0.01 0.00 0.00 0.00 0.01 0.01 0.01 0.01 0.02 0.03 0.05 0.07 0.10 0.13 0.18 0.20 0.22 0.20 0.15 0.12 0.10 0.13 0.18 0.26 0.36 0.38 0.35 0.38 0.43 0.55 0.63 0.67 0.76 0.65 0.59
0.00 0.00 0.00 0.00 0.00 0.00 0.00 0.01 0.00 0.00 0.00 0.01 0.01 0.01 0.01 0.00 0.03 0.03 0.01 0.03 0.04 0.05 0.09 0.09 0.08 0.08 0.07 0.07 0.08 0.07 0.12 0.19 0.26 0.29 0.28 0.27 0.27 0.31 0.35 0.36 0.34 0.35 0.31
0.00 0.00 0.00 0.00 0.00 0.00 0.01 0.01 0.00 0.00 0.00 0.01 0.01 0.01 0.04 0.02 0.03 0.03 0.02 0.03 0.04 0.04 0.03 0.03 0.04 0.06 0.07 0.11 0.16 0.17 0.20 0.23 0.23 0.20 0.14 0.15 0.15 0.13 0.14 0.13 0.15 0.14 0.10

GFSMA_prec_precacc24_180.txt.gz
Total_Precipitation_Accumulation
0.02 0.04 0.05 0.09 0.09 0.15 0.17 0.22 0.20 0.15 0.15 0.12 0.10 0.08 0.05 0.02 0.03 0.03 0.02 0.02 0.02 0.01 0.00 0.01 0.04 0.05 0.03 0.02 0.02 0.02 0.01 0.00 0.00 0.00 0.00 0.00 0.00 0.00 0.00 0.00 0.01 0.02 0.02
0.00 0.01 0.02 0.03 0.04 0.06 0.07 0.12 0.17 0.16 0.16 0.18 0.12 0.15 0.14 0.12 0.07 0.06 0.05 0.05 0.06 0.05 0.03 0.02 0.03 0.05 0.07 0.08 0.07 0.05 0.02 0.01 0.01 0.00 0.00 0.00 0.01 0.01 0.00 0.02 0.04 0.05 0.06
0.00 0.00 0.01 0.02 0.03 0.04 0.07 0.11 0.11 0.14 0.11 0.14 0.16 0.22 0.26 0.21 0.20 0.17 0.13 0.08 0.08 0.07 0.06 0.07 0.06 0.07 0.10 0.06 0.13 0.17 0.12 0.05 0.03 0.03 0.04 0.08 0.09 0.10 0.06 0.03 0.05 0.04 0.04
0.00 0.00 0.00 0.00 0.01 0.02 0.04 0.06 0.07 0.07 0.06 0.08 0.09 0.12 0.17 0.28 0.28 0.25 0.27 0.21 0.12 0.09 0.08 0.06 0.08 0.08 0.10 0.09 0.05 0.10 0.20 0.16 0.10 0.09 0.09 0.11 0.10 0.07 0.06 0.03 0.05 0.03 0.02
0.00 0.00 0.00 0.00 0.00 0.02 0.04 0.05 0.05 0.07 0.08 0.12 0.14 0.17 0.14 0.14 0.22 0.30 0.29 0.28 0.23 0.17 0.13 0.18 0.20 0.19 0.19 0.15 0.10 0.10 0.18 0.26 0.30 0.23 0.18 0.12 0.09 0.09 0.07 0.06 0.07 0.03 0.01
0.00 0.00 0.00 0.00 0.00 0.00 0.01 0.04 0.05 0.06 0.09 0.12 0.19 0.20 0.22 0.26 0.26 0.25 0.34 0.39 0.38 0.39 0.33 0.31 0.30 0.27 0.33 0.30 0.24 0.22 0.26 0.38 0.44 0.41 0.42 0.33 0.20 0.14 0.11 0.08 0.06 0.03 0.01
0.00 0.00 0.00 0.00 0.00 0.00 0.00 0.01 0.04 0.07 0.06 0.07 0.16 0.22 0.27 0.50 0.73 0.75 0.67 0.61 0.60 0.58 0.68 0.53 0.36 0.24 0.25 0.37 0.42 0.30 0.25 0.34 0.43 0.48 0.38 0.49 0.58 0.32 0.13 0.09 0.07 0.03 0.03
0.00 0.00 0.00 0.00 0.00 0.00 0.00 0.00 0.01 0.04 0.05 0.05 0.08 0.08 0.10 0.15 0.28 0.41 0.44 0.32 0.25 0.37 0.41 0.47 0.51 0.40 0.27 0.19 0.22 0.29 0.29 0.31 0.31 0.35 0.40 0.34 0.33 0.28 0.17 0.14 0.13 0.10 0.07
0.00 0.00 0.00 0.00 0.00 0.00 0.00 0.00 0.00 0.01 0.03 0.03 0.04 0.08 0.06 0.04 0.04 0.05 0.08 0.12 0.13 0.14 0.17 0.22 0.26 0.29 0.26 0.22 0.21 0.21 0.25 0.33 0.29 0.23 0.20 0.24 0.28 0.31 0.27 0.25 0.23 0.21 0.20
0.00 0.00 0.00 0.00 0.00 0.00 0.00 0.00 0.00 0.00 0.00 0.02 0.03 0.04 0.07 0.09 0.10 0.06 0.07 0.14 0.16 0.17 0.20 0.22 0.22 0.28 0.33 0.26 0.26 0.25 0.29 0.34 0.32 0.16 0.26 0.32 0.32 0.36 0.47 0.54 0.50 0.54 0.64
0.00 0.00 0.00 0.01 0.01 0.01 0.01 0.01 0.01 0.01 0.01 0.01 0.02 0.03 0.04 0.06 0.08 0.12 0.05 0.01 0.03 0.08 0.15 0.17 0.18 0.23 0.23 0.20 0.18 0.18 0.18 0.17 0.16 0.07 0.13 0.31 0.62 0.69 0.70 0.74 0.76 0.88 1.21
0.00 0.00 0.00 0.00 0.00 0.00 0.00 0.00 0.00 0.00 0.01 0.01 0.03 0.04 0.04 0.06 0.07 0.09 0.10 0.03 0.02 0.01 0.03 0.06 0.09 0.15 0.16 0.19 0.27 0.40 0.36 0.29 0.15 0.09 0.28 0.38 0.44 0.32 0.26 0.24 0.25 0.29 0.31
0.00 0.00 0.00 0.00 0.00 0.00 0.00 0.00 0.01 0.01 0.01 0.02 0.04 0.05 0.05 0.05 0.08 0.13 0.16 0.10 0.05 0.03 0.02 0.01 0.04 0.08 0.07 0.11 0.12 0.18 0.26 0.29 0.26 0.29 0.37 0.35 0.25 0.19 0.17 0.16 0.15 0.17 0.21
0.00 0.00 0.01 0.00 0.00 0.00 0.00 0.00 0.01 0.01 0.02 0.03 0.04 0.08 0.07 0.06 0.06 0.07 0.07 0.06 0.03 0.01 0.01 0.00 0.01 0.06 0.04 0.02 0.06 0.05 0.05 0.10 0.15 0.18 0.15 0.11 0.10 0.11 0.14 0.16 0.19 0.22 0.26
0.00 0.00 0.00 0.00 0.00 0.00 0.00 0.00 0.00 0.01 0.02 0.02 0.03 0.04 0.05 0.04 0.03 0.03 0.03 0.04 0.05 0.02 0.00 0.00 0.02 0.03 0.01 0.00 0.01 0.02 0.01 0.01 0.01 0.02 0.04 0.04 0.04 0.03 0.02 0.02 0.02 0.03 0.06
0.00 0.00 0.00 0.00 0.00 0.00 0.00 0.00 0.00 0.00 0.00 0.01 0.00 0.00 0.00 0.01 0.01 0.02 0.03 0.04 0.08 0.13 0.06 0.00 0.02 0.02 0.00 0.00 0.00 0.00 0.00 0.01 0.02 0.02 0.02 0.04 0.05 0.05 0.03 0.02 0.02 0.05 0.06
0.00 0.00 0.00 0.00 0.00 0.00 0.00 0.00 0.00 0.01 0.00 0.00 0.00 0.00 0.00 0.00 0.01 0.01 0.02 0.02 0.04 0.08 0.07 0.01 0.00 0.00 0.00 0.00 0.00 0.00 0.00 0.01 0.02 0.03 0.05 0.07 0.07 0.04 0.03 0.03 0.04 0.05 0.06
0.00 0.00 0.00 0.00 0.00 0.00 0.00 0.00 0.00 0.00 0.00 0.00 0.01 0.01 0.01 0.02 0.03 0.03 0.03 0.03 0.03 0.04 0.05 0.01 0.00 0.00 0.00 0.00 0.00 0.00 0.00 0.00 0.01 0.01 0.03 0.05 0.06 0.08 0.10 0.09 0.10 0.10 0.09
0.00 0.00 0.00 0.00 0.00 0.00 0.00 0.00 0.00 0.00 0.00 0.00 0.00 0.00 0.00 0.00 0.00 0.00 0.00 0.00 0.00 0.01 0.02 0.01 0.00 0.01 0.01 0.01 0.01 0.01 0.01 0.01 0.01 0.02 0.06 0.09 0.14 0.17 0.17 0.15 0.15 0.12 0.10
0.00 0.00 0.00 0.00 0.00 0.00 0.00 0.00 0.00 0.00 0.00 0.00 0.00 0.00 0.00 0.00 0.00 0.00 0.00 0.00 0.00 0.00 0.00 0.01 0.01 0.01 0.03 0.03 0.05 0.03 0.02 0.02 0.02 0.04 0.06 0.10 0.14 0.18 0.21 0.21 0.21 0.18 0.18
0.00 0.00 0.00 0.00 0.00 0.00 0.00 0.00 0.00 0.00 0.00 0.00 0.00 0.00 0.00 0.01 0.02 0.02 0.01 0.00 0.00 0.01 0.02 0.02 0.01 0.01 0.01 0.03 0.03 0.04 0.05 0.05 0.09 0.08 0.07 0.13 0.20 0.29 0.41 0.52 0.47 0.45 0.41
0.00 0.00 0.00 0.00 0.00 0.00 0.01 0.01 0.01 0.00 0.00 0.00 0.00 0.00 0.01 0.02 0.02 0.04 0.03 0.03 0.02 0.01 0.01 0.02 0.03 0.03 0.03 0.05 0.05 0.08 0.14 0.18 0.21 0.21 0.28 0.34 0.42 0.50 0.54 0.56 0.63 0.58 0.57
0.00 0.00 0.00 0.00 0.00 0.00 0.01 0.01 0.01 0.00 0.00 0.00 0.00 0.00 0.00 0.01 0.01 0.01 0.04 0.03 0.03 0.04 0.02 0.02 0.03 0.06 0.08 0.10 0.15 0.24 0.36 0.55 0.64 0.52 0.42 0.47 0.55 0.66 0.70 0.68 0.64 0.52 0.47
0.00 0.00 0.00 0.00 0.00 0.00 0.00 0.01 0.01 0.00 0.00 0.00 0.00 0.00 0.00 0.00 0.01 0.01 0.00 0.00 0.01 0.02 0.10 0.16 0.19 0.18 0.14 0.10 0.07 0.09 0.12 0.20 0.29 0.28 0.24 0.28 0.34 0.42 0.49 0.55 0.67 0.61 0.58
0.00 0.00 0.00 0.00 0.00 0.00 0.00 0.00 0.00 0.00 0.00 0.00 0.00 0.00 0.00 0.00 0.01 0.01 0.00 0.00 0.01 0.02 0.06 0.07 0.06 0.06 0.05 0.04 0.03 0.02 0.03 0.04 0.07 0.08 0.11 0.18 0.24 0.30 0.34 0.34 0.32 0.35 0.31
0.00 0.00 0.00 0.00 0.00 0.00 0.00 0.00 0.00 0.00 0.00 0.00 0.00 0.00 0.01 0.00 0.01 0.00 0.00 0.01 0.02 0.02 0.02 0.02 0.03 0.03 0.03 0.02 0.02 0.02 0.02 0.05 0.09 0.10 0.09 0.13 0.14 0.13 0.14 0.13 0.15 0.14 0.10

GFSMA_prec_precacc24_183.txt.gz
Total_Precipitation_Accumulation
0.01 0.03 0.04 0.07 0.09 0.15 0.17 0.21 0.20 0.15 0.15 0.12 0.10 0.08 0.05 0.02 0.03 0.03 0.02 0.02 0.02 0.01 0.00 0.02 0.07 0.07 0.05 0.04 0.05 0.05 0.03 0.02 0.02 0.01 0.00 0.01 0.01 0.01 0.01 0.01 0.02 0.02 0.02
0.00 0.00 0.01 0.02 0.02 0.04 0.06 0.11 0.16 0.16 0.16 0.18 0.12 0.15 0.14 0.12 0.07 0.06 0.05 0.05 0.06 0.05 0.03 0.02 0.03 0.08 0.10 0.11 0.11 0.12 0.08 0.03 0.02 0.01 0.01 0.01 0.01 0.01 0.01 0.01 0.03 0.05 0.05
0.00 0.00 0.00 0.00 0.01 0.02 0.05 0.08 0.09 0.13 0.10 0.14 0.16 0.21 0.25 0.21 0.20 0.17 0.13 0.08 0.08 0.07 0.06 0.07 0.06 0.08 0.11 0.09 0.18 0.25 0.22 0.13 0.07 0.03 0.03 0.06 0.09 0.10 0.06 0.03 0.04 0.03 0.03
0.00 0.00 0.00 0.00 0.00 0.00 0.02 0.04 0.05 0.06 0.05 0.07 0.07 0.11 0.16 0.27 0.28 0.25 0.27 0.21 0.12 0.09 0.08 0.06 0.08 0.08 0.10 0.10 0.10 0.18 0.31 0.29 0.24 0.16 0.10 0.10 0.13 0.11 0.10 0.05 0.07 0.05 0.03
0.00 0.00 0.00 0.00 0.00 0.00 0.00 0.02 0.04 0.05 0.05 0.05 0.06 0.10 0.11 0.14 0.21 0.29 0.29 0.28 0.23 0.17 0.13 0.18 0.20 0.19 0.19 0.15 0.10 0.13 0.24 0.37 0.43 0.37 0.27 0.16 0.13 0.13 0.14 0.12 0.11 0.05 0.03
0.00 0.00 0.00 0.00 0.00 0.00 0.00 0.00 0.01 0.04 0.06 0.07 0.09 0.09 0.09 0.11 0.18 0.23 0.34 0.39 0.38 0.39 0.33 0.31 0.30 0.27 0.33 0.30 0.24 0.22 0.26 0.42 0.71 0.95 0.96 0.70 0.37 0.25 0.19 0.15 0.11 0.05 0.02
0.00 0.00 0.00 0.00 0.00 0.00 0.00 0.00 0.00 0.01 0.03 0.05 0.11 0.08 0.06 0.10 0.34 0.57 0.62 0.59 0.59 0.58 0.68 0.53 0.36 0.24 0.25 0.37 0.42 0.30 0.25 0.35 0.51 0.69 0.97 1.42 1.62 1.24 0.47 0.17 0.12 0.10 0.07
0.00 0.00 0.00 0.00 0.00 0.00 0.00 0.00 0.00 0.00 0.00 0.03 0.05 0.06 0.06 0.05 0.05 0.05 0.20 0.27 0.22 0.35 0.39 0.47 0.51 0.40 0.27 0.19 0.22 0.29 0.29 0.32 0.33 0.39 0.67 0.89 1.02 1.24 1.00 0.38 0.20 0.16 0.14
0.00 0.00 0.00 0.00 0.00 0.00 0.00 0.00 0.00 0.00 0.00 0.00 0.02 0.05 0.05 0.04 0.03 0.03 0.05 0.09 0.12 0.13 0.15 0.17 0.22 0.28 0.26 0.22 0.21 0.21 0.25 0.35 0.29 0.24 0.24 0.41 0.57 0.80 1.27 1.08 0.48 0.31 0.27
0.00 0.00 0.00 0.00 0.00 0.00 0.00 0.00 0.00 0.00 0.00 0.00 0.01 0.02 0.05 0.08 0.09 0.06 0.07 0.14 0.16 0.17 0.19 0.19 0.19 0.26 0.31 0.26 0.26 0.26 0.31 0.37 0.35 0.17 0.28 0.43 0.43 0.48 0.71 1.12 0.99 0.81 0.71
0.00 0.00 0.00 0.01 0.01 0.01 0.01 0.01 0.01 0.01 0.01 0.01 0.02 0.02 0.03 0.04 0.06 0.11 0.05 0.01 0.03 0.07 0.14 0.16 0.17 0.21 0.21 0.17 0.18 0.21 0.24 0.26 0.21 0.08 0.15 0.38 0.77 0.89 0.91 0.94 1.07 1.25 1.25
0.00 0.00 0.00 0.00 0.00 0.00 0.00 0.00 0.00 0.00 0.01 0.01 0.03 0.03 0.03 0.05 0.05 0.08 0.10 0.03 0.02 0.01 0.02 0.04 0.07 0.14 0.15 0.14 0.18 0.35 0.34 0.35 0.40 0.28 0.40 0.54 0.62 0.81 0.53 0.43 0.51 0.64 0.47
0.00 0.00 0.00 0.00 0.00 0.00 0.00 0.00 0.01 0.01 0.01 0.02 0.04 0.05 0.04 0.03 0.06 0.11 0.15 0.09 0.04 0.02 0.02 0.01 0.03 0.07 0.06 0.09 0.11 0.16 0.25 0.38 0.57 0.64 0.60 0.51 0.32 0.22 0.20 0.19 0.18 0.20 0.23
0.00 0.00 0.01 0.00 0.00 0.00 0.00 0.00 0.01 0.01 0.02 0.02 0.04 0.08 0.07 0.05 0.05 0.05 0.06 0.05 0.03 0.00 0.01 0.00 0.01 0.06 0.04 0.02 0.05 0.04 0.04 0.12 0.27 0.42 0.40 0.27 0.16 0.12 0.13 0.14 0.17 0.20 0.22
0.00 0.00 0.00 0.00 0.00 0.00 0.00 0.00 0.00 0.01 0.02 0.02 0.03 0.04 0.05 0.04 0.03 0.03 0.03 0.03 0.04 0.02 0.00 0.00 0.02 0.03 0.01 0.00 0.00 0.01 0.01 0.00 0.00 0.01 0.02 0.03 0.01 0.01 0.01 0.02 0.02 0.03 0.05
0.00 0.00 0.00 0.00 0.00 0.00 0.00 0.00 0.00 0.00 0.00 0.01 0.00 0.00 0.00 0.01 0.01 0.02 0.03 0.04 0.08 0.12 0.06 0.00 0.02 0.02 0.00 0.00 0.00 0.00 0.00 0.00 0.00 0.00 0.00 0.00 0.00 0.01 0.02 0.01 0.02 0.05 0.06
0.00 0.00 0.00 0.00 0.00 0.00 0.00 0.00 0.00 0.01 0.00 0.00 0.00 0.00 0.00 0.00 0.00 0.00 0.01 0.02 0.03 0.07 0.07 0.01 0.00 0.00 0.00 0.00 0.00 0.00 0.00 0.00 0.00 0.01 0.01 0.01 0.02 0.02 0.03 0.03 0.04 0.05 0.05
0.00 0.00 0.00 0.00 0.00 0.00 0.00 0.00 0.00 0.00 0.00 0.00 0.01 0.01 0.01 0.02 0.03 0.02 0.02 0.02 0.02 0.02 0.02 0.01 0.00 0.00 0.00 0.00 0.00 0.00 0.00 0.00 0.01 0.02 0.03 0.03 0.04 0.06 0.06 0.07 0.08 0.08 0.07
0.00 0.00 0.00 0.00 0.00 0.00 0.00 0.00 0.00 0.00 0.00 0.00 0.00 0.00 0.00 0.00 0.00 0.00 0.00 0.00 0.00 0.00 0.00 0.00 0.00 0.00 0.00 0.00 0.00 0.00 0.00 0.01 0.01 0.02 0.06 0.06 0.06 0.09 0.11 0.11 0.12 0.10 0.09
0.00 0.00 0.00 0.00 0.00 0.00 0.00 0.00 0.00 0.00 0.00 0.00 0.00 0.00 0.00 0.00 0.00 0.00 0.00 0.00 0.00 0.00 0.00 0.01 0.00 0.00 0.00 0.00 0.02 0.02 0.01 0.01 0.02 0.03 0.03 0.06 0.09 0.12 0.17 0.16 0.19 0.17 0.17
0.00 0.00 0.00 0.00 0.00 0.00 0.00 0.00 0.00 0.00 0.00 0.00 0.00 0.00 0.00 0.01 0.02 0.01 0.01 0.00 0.00 0.01 0.01 0.01 0.01 0.01 0.01 0.01 0.01 0.01 0.03 0.02 0.04 0.03 0.02 0.04 0.07 0.13 0.30 0.42 0.37 0.38 0.37
0.00 0.00 0.00 0.00 0.00 0.00 0.00 0.01 0.00 0.00 0.00 0.00 0.00 0.00 0.01 0.02 0.01 0.03 0.03 0.02 0.01 0.00 0.00 0.01 0.01 0.01 0.01 0.01 0.00 0.00 0.01 0.02 0.05 0.04 0.07 0.12 0.22 0.31 0.38 0.41 0.52 0.50 0.50
0.00 0.00 0.00 0.00 0.00 0.00 0.00 0.01 0.01 0.00 0.00 0.00 0.00 0.00 0.00 0.00 0.01 0.01 0.03 0.02 0.02 0.02 0.01 0.00 0.00 0.00 0.00 0.01 0.01 0.02 0.14 0.21 0.22 0.15 0.17 0.29 0.36 0.43 0.46 0.47 0.50 0.42 0.35
0.00 0.00 0.00 0.00 0.00 0.00 0.00 0.00 0.01 0.00 0.00 0.00 0.00 0.00 0.00 0.00 0.00 0.00 0.00 0.00 0.00 0.00 0.00 0.00 0.01 0.01 0.04 0.05 0.04 0.02 0.02 0.05 0.11 0.14 0.13 0.18 0.20 0.21 0.26 0.33 0.42 0.40 0.39
0.00 0.00 0.00 0.00 0.00 0.00 0.00 0.00 0.00 0.00 0.00 0.00 0.00 0.00 0.00 0.00 0.00 0.01 0.00 0.00 0.00 0.00 0.01 0.00 0.01 0.00 0.01 0.01 0.02 0.02 0.01 0.01 0.01 0.01 0.01 0.04 0.05 0.09 0.12 0.13 0.16 0.23 0.24
0.00 0.00 0.00 0.00 0.00 0.00 0.00 0.00 0.00 0.00 0.00 0.00 0.00 0.00 0.00 0.00 0.00 0.00 0.00 0.00 0.00 0.00 0.00 0.00 0.01 0.01 0.01 0.01 0.01 0.01 0.00 0.00 0.00 0.00 0.00 0.01 0.01 0.02 0.04 0.05 0.09 0.11 0.10

GFSMA_prec_precacc24_186.txt.gz
Total_Precipitation_Accumulation
0.00 0.01 0.02 0.05 0.06 0.12 0.15 0.20 0.20 0.15 0.15 0.12 0.10 0.08 0.05 0.02 0.03 0.03 0.02 0.02 0.02 0.01 0.00 0.02 0.07 0.10 0.09 0.08 0.07 0.08 0.05 0.05 0.05 0.04 0.02 0.01 0.01 0.01 0.01 0.01 0.02 0.02 0.02
0.00 0.00 0.00 0.01 0.01 0.03 0.06 0.10 0.15 0.15 0.16 0.18 0.11 0.15 0.14 0.12 0.07 0.06 0.05 0.05 0.06 0.05 0.03 0.02 0.03 0.07 0.11 0.15 0.18 0.19 0.14 0.08 0.06 0.05 0.03 0.02 0.01 0.01 0.01 0.01 0.03 0.04 0.04
0.00 0.00 0.00 0.00 0.00 0.01 0.03 0.06 0.08 0.11 0.10 0.13 0.16 0.21 0.25 0.21 0.20 0.17 0.13 0.08 0.08 0.07 0.06 0.07 0.06 0.08 0.11 0.09 0.18 0.29 0.29 0.20 0.14 0.09 0.07 0.06 0.07 0.08 0.04 0.03 0.04 0.02 0.02
0.00 0.00 0.00 0.00 0.00 0.00 0.00 0.02 0.04 0.05 0.05 0.06 0.07 0.10 0.15 0.27 0.27 0.24 0.27 0.21 0.12 0.09 0.08 0.06 0.08 0.08 0.10 0.10 0.10 0.19 0.33 0.35 0.32 0.27 0.17 0.11 0.13 0.12 0.11 0.06 0.07 0.06 0.04
0.00 0.00 0.00 0.00 0.00 0.00 0.00 0.00 0.01 0.03 0.04 0.04 0.03 0.06 0.08 0.12 0.19 0.24 0.25 0.28 0.23 0.17 0.13 0.18 0.20 0.19 0.19 0.15 0.10 0.13 0.24 0.39 0.50 0.48 0.41 0.27 0.19 0.17 0.18 0.16 0.14 0.08 0.06
0.00 0.00 0.00 0.00 0.00 0.00 0.00 0.00 0.00 0.01 0.03 0.05 0.07 0.07 0.06 0.08 0.10 0.13 0.22 0.30 0.35 0.38 0.33 0.31 0.30 0.27 0.33 0.30 0.24 0.22 0.26 0.42 0.73 1.03 1.12 0.97 0.66 0.46 0.30 0.22 0.18 0.11 0.08
0.00 0.00 0.00 0.00 0.00 0.00 0.00 0.00 0.00 0.00 0.00 0.02 0.06 0.06 0.05 0.06 0.07 0.08 0.11 0.14 0.36 0.46 0.56 0.52 0.36 0.24 0.25 0.37 0.42 0.31 0.25 0.35 0.51 0.70 1.04 1.61 2.25 2.43 1.56 0.61 0.28 0.21 0.17
0.00 0.00 0.00 0.00 0.00 0.00 0.00 0.00 0.00 0.00 0.00 0.00 0.01 0.03 0.03 0.03 0.04 0.02 0.02 0.03 0.02 0.18 0.25 0.32 0.43 0.35 0.26 0.19 0.22 0.30 0.30 0.32 0.34 0.40 0.69 0.96 1.14 1.59 1.91 1.34 0.66 0.41 0.35
0.00 0.00 0.00 0.00 0.00 0.00 0.00 0.00 0.00 0.00 0.00 0.00 0.00 0.02 0.03 0.03 0.02 0.03 0.03 0.04 0.04 0.05 0.08 0.11 0.13 0.16 0.19 0.20 0.21 0.21 0.25 0.35 0.30 0.25 0.25 0.45 0.61 0.81 1.37 1.50 1.15 0.79 0.58
0.00 0.00 0.00 0.00 0.00 0.00 0.00 0.00 0.00 0.00 0.00 0.00 0.00 0.00 0.03 0.05 0.06 0.04 0.06 0.14 0.16 0.17 0.19 0.18 0.18 0.23 0.26 0.21 0.23 0.24 0.31 0.39 0.36 0.18 0.29 0.44 0.47 0.54 0.79 1.28 1.57 1.47 1.26
0.00 0.00 0.00 0.01 0.01 0.01 0.01 0.01 0.01 0.01 0.01 0.01 0.02 0.01 0.01 0.01 0.04 0.09 0.03 0.01 0.02 0.07 0.14 0.16 0.17 0.21 0.21 0.17 0.17 0.20 0.22 0.28 0.21 0.08 0.17 0.42 0.83 0.96 1.02 1.09 1.28 2.02 2.36
0.00 0.00 0.00 0.00 0.00 0.00 0.00 0.00 0.00 0.00 0.01 0.01 0.03 0.03 0.02 0.03 0.03 0.07 0.08 0.02 0.01 0.00 0.02 0.04 0.07 0.14 0.14 0.13 0.18 0.33 0.30 0.33 0.38 0.31 0.54 0.67 0.71 0.88 0.69 0.59 0.60 0.88 1.04
0.00 0.00 0.00 0.00 0.00 0.00 0.00 0.00 0.01 0.01 0.01 0.02 0.05 0.05 0.04 0.03 0.05 0.08 0.10 0.05 0.02 0.01 0.01 0.01 0.03 0.07 0.06 0.09 0.10 0.15 0.25 0.36 0.55 0.73 1.57 1.20 0.74 0.45 0.47 0.24 0.22 0.22 0.27
0.00 0.00 0.01 0.00 0.00 0.00 0.00 0.00 0.01 0.01 0.02 0.02 0.04 0.08 0.07 0.06 0.05 0.05 0.06 0.05 0.02 0.00 0.00 0.00 0.01 0.06 0.04 0.02 0.05 0.04 0.04 0.12 0.28 0.81 1.17 0.97 0.31 0.18 0.19 0.20 0.12 0.14 0.17
0.00 0.00 0.00 0.00 0.00 0.00 0.00 0.00 0.00 0.01 0.02 0.02 0.03 0.04 0.05 0.04 0.03 0.03 0.03 0.04 0.05 0.02 0.00 0.00 0.02 0.04 0.01 0.00 0.00 0.01 0.01 0.00 0.01 0.01 0.05 0.12 0.05 0.00 0.00 0.00 0.01 0.02 0.04
0.00 0.00 0.00 0.00 0.00 0.00 0.00 0.00 0.00 0.00 0.00 0.01 0.00 0.00 0.00 0.01 0.01 0.02 0.03 0.04 0.07 0.12 0.07 0.01 0.03 0.02 0.00 0.00 0.00 0.00 0.00 0.00 0.00 0.01 0.00 0.00 0.00 0.00 0.00 0.01 0.02 0.04 0.06
0.00 0.00 0.00 0.00 0.00 0.00 0.00 0.00 0.00 0.01 0.00 0.00 0.00 0.00 0.00 0.00 0.00 0.00 0.01 0.01 0.03 0.06 0.06 0.01 0.00 0.00 0.00 0.00 0.00 0.00 0.00 0.00 0.00 0.01 0.01 0.01 0.02 0.02 0.02 0.03 0.04 0.05 0.05
0.00 0.00 0.00 0.00 0.00 0.00 0.00 0.00 0.00 0.00 0.00 0.00 0.01 0.01 0.01 0.01 0.02 0.01 0.01 0.01 0.01 0.01 0.01 0.01 0.00 0.00 0.00 0.00 0.00 0.00 0.00 0.00 0.00 0.01 0.02 0.03 0.04 0.04 0.04 0.05 0.06 0.06 0.06
0.00 0.00 0.00 0.00 0.00 0.00 0.00 0.00 0.00 0.00 0.00 0.00 0.00 0.00 0.00 0.00 0.00 0.00 0.00 0.00 0.00 0.00 0.00 0.00 0.00 0.00 0.00 0.00 0.00 0.00 0.00 0.00 0.00 0.01 0.03 0.04 0.05 0.07 0.08 0.07 0.06 0.05 0.05
0.00 0.00 0.00 0.00 0.00 0.00 0.00 0.00 0.00 0.00 0.00 0.00 0.00 0.00 0.00 0.00 0.00 0.00 0.00 0.00 0.00 0.00 0.00 0.00 0.00 0.00 0.00 0.00 0.00 0.00 0.00 0.00 0.00 0.01 0.01 0.04 0.06 0.09 0.11 0.08 0.06 0.06 0.07
0.00 0.00 0.00 0.00 0.00 0.00 0.00 0.00 0.00 0.00 0.00 0.00 0.00 0.00 0.00 0.01 0.01 0.01 0.01 0.00 0.00 0.00 0.00 0.01 0.00 0.01 0.01 0.00 0.00 0.00 0.00 0.00 0.00 0.00 0.00 0.02 0.04 0.03 0.05 0.05 0.03 0.04 0.07
0.00 0.00 0.00 0.00 0.00 0.00 0.00 0.01 0.00 0.00 0.00 0.00 0.00 0.00 0.00 0.01 0.01 0.03 0.02 0.02 0.01 0.00 0.00 0.00 0.00 0.01 0.00 0.00 0.00 0.00 0.00 0.00 0.00 0.00 0.00 0.01 0.03 0.04 0.05 0.06 0.09 0.07 0.08
0.00 0.00 0.00 0.00 0.00 0.00 0.00 0.00 0.00 0.00 0.00 0.00 0.00 0.00 0.00 0.00 0.00 0.00 0.02 0.02 0.01 0.01 0.00 0.00 0.00 0.00 0.00 0.00 0.00 0.00 0.00 0.00 0.00 0.00 0.02 0.05 0.06 0.06 0.08 0.11 0.10 0.08 0.09
0.00 0.00 0.00 0.00 0.00 0.00 0.00 0.00 0.00 0.00 0.00 0.00 0.00 0.00 0.00 0.00 0.00 0.00 0.00 0.00 0.00 0.00 0.00 0.00 0.00 0.00 0.00 0.00 0.00 0.00 0.00 0.00 0.00 0.00 0.02 0.05 0.03 0.02 0.02 0.04 0.13 0.16 0.18
0.00 0.00 0.00 0.00 0.00 0.00 0.00 0.00 0.00 0.00 0.00 0.00 0.00 0.00 0.00 0.00 0.00 0.01 0.00 0.00 0.00 0.00 0.00 0.00 0.00 0.00 0.00 0.00 0.00 0.00 0.00 0.00 0.00 0.00 0.00 0.01 0.01 0.01 0.01 0.02 0.03 0.06 0.07
0.00 0.00 0.00 0.00 0.00 0.00 0.00 0.00 0.00 0.00 0.00 0.00 0.00 0.00 0.00 0.00 0.00 0.00 0.00 0.00 0.00 0.00 0.00 0.00 0.00 0.00 0.00 0.00 0.00 0.00 0.00 0.00 0.00 0.00 0.00 0.00 0.00 0.00 0.00 0.00 0.00 0.00 0.00

GFSMA_prec_precacc24_192.txt.gz
Total_Precipitation_Accumulation
0.00 0.00 0.00 0.00 0.00 0.01 0.02 0.03 0.06 0.06 0.08 0.10 0.10 0.08 0.05 0.02 0.03 0.03 0.02 0.02 0.02 0.01 0.00 0.02 0.06 0.08 0.10 0.11 0.11 0.13 0.13 0.14 0.15 0.15 0.11 0.08 0.06 0.04 0.03 0.02 0.02 0.02 0.03
0.00 0.00 0.00 0.00 0.00 0.00 0.00 0.00 0.01 0.02 0.04 0.05 0.07 0.13 0.13 0.12 0.07 0.06 0.05 0.05 0.06 0.05 0.03 0.02 0.03 0.07 0.09 0.14 0.18 0.20 0.17 0.14 0.14 0.15 0.15 0.15 0.11 0.07 0.04 0.04 0.03 0.03 0.03
0.00 0.00 0.00 0.00 0.00 0.00 0.00 0.00 0.00 0.00 0.01 0.04 0.05 0.07 0.15 0.16 0.19 0.17 0.13 0.08 0.08 0.07 0.06 0.07 0.06 0.08 0.11 0.07 0.14 0.24 0.26 0.20 0.17 0.15 0.16 0.17 0.19 0.16 0.11 0.04 0.03 0.03 0.02
0.00 0.00 0.00 0.00 0.00 0.00 0.00 0.00 0.00 0.00 0.00 0.00 0.02 0.04 0.06 0.09 0.12 0.16 0.23 0.20 0.12 0.08 0.07 0.06 0.08 0.08 0.10 0.10 0.10 0.16 0.27 0.31 0.31 0.29 0.22 0.17 0.24 0.26 0.22 0.14 0.10 0.06 0.03
0.00 0.00 0.00 0.00 0.00 0.00 0.00 0.00 0.00 0.00 0.00 0.00 0.00 0.01 0.04 0.06 0.08 0.10 0.13 0.17 0.18 0.15 0.11 0.16 0.18 0.19 0.19 0.15 0.10 0.12 0.22 0.37 0.48 0.47 0.43 0.32 0.27 0.28 0.31 0.26 0.21 0.13 0.10
0.00 0.00 0.00 0.00 0.00 0.00 0.00 0.00 0.00 0.00 0.00 0.00 0.00 0.00 0.00 0.02 0.04 0.05 0.09 0.17 0.22 0.24 0.18 0.18 0.20 0.23 0.31 0.30 0.24 0.22 0.26 0.41 0.71 1.01 1.11 0.98 0.73 0.59 0.55 0.48 0.42 0.36 0.31
0.00 0.00 0.00 0.00 0.00 0.00 0.00 0.00 0.00 0.00 0.00 0.00 0.00 0.00 0.00 0.00 0.00 0.01 0.03 0.06 0.11 0.12 0.20 0.20 0.18 0.17 0.23 0.36 0.41 0.30 0.25 0.35 0.51 0.69 1.03 1.60 2.25 2.48 2.02 1.66 1.42 1.51 1.58
0.00 0.00 0.00 0.00 0.00 0.00 0.00 0.00 0.00 0.00 0.00 0.00 0.00 0.00 0.00 0.00 0.00 0.00 0.00 0.01 0.01 0.12 0.20 0.24 0.24 0.19 0.17 0.15 0.20 0.29 0.30 0.32 0.34 0.40 0.69 0.97 1.15 1.65 2.22 2.05 1.75 1.74 1.90
0.00 0.00 0.00 0.00 0.00 0.00 0.00 0.00 0.00 0.00 0.00 0.00 0.00 0.01 0.02 0.01 0.01 0.01 0.01 0.02 0.03 0.03 0.06 0.09 0.11 0.11 0.09 0.11 0.16 0.18 0.23 0.34 0.30 0.28 0.29 0.52 0.67 0.83 1.44 1.64 1.32 0.99 0.89
0.00 0.00 0.00 0.00 0.00 0.00 0.00 0.00 0.00 0.00 0.00 0.00 0.00 0.00 0.01 0.03 0.03 0.01 0.01 0.04 0.07 0.10 0.12 0.15 0.15 0.17 0.19 0.15 0.16 0.16 0.21 0.30 0.30 0.23 0.40 0.55 0.56 0.61 0.92 1.37 1.63 1.56 1.31
0.00 0.00 0.00 0.00 0.00 0.00 0.00 0.00 0.00 0.00 0.00 0.00 0.01 0.01 0.01 0.01 0.02 0.05 0.02 0.00 0.00 0.03 0.07 0.12 0.15 0.19 0.19 0.16 0.17 0.19 0.19 0.26 0.20 0.17 0.30 0.54 0.94 1.08 1.19 1.27 1.49 2.36 2.51
0.00 0.00 0.00 0.00 0.00 0.00 0.00 0.00 0.00 0.00 0.00 0.00 0.00 0.01 0.02 0.04 0.03 0.06 0.07 0.01 0.00 0.00 0.01 0.03 0.04 0.09 0.10 0.10 0.15 0.32 0.30 0.32 0.37 0.31 0.56 0.72 0.89 1.05 0.96 0.93 1.01 1.44 1.09
0.00 0.00 0.00 0.00 0.00 0.00 0.00 0.00 0.00 0.00 0.00 0.00 0.01 0.02 0.03 0.04 0.05 0.09 0.11 0.04 0.00 0.00 0.00 0.00 0.02 0.04 0.02 0.05 0.06 0.14 0.24 0.35 0.55 0.74 1.69 1.80 1.58 0.74 1.74 1.11 0.91 0.88 0.33
0.00 0.00 0.00 0.00 0.00 0.00 0.00 0.00 0.00 0.00 0.00 0.00 0.00 0.03 0.05 0.06 0.06 0.06 0.07 0.05 0.02 0.00 0.00 0.00 0.01 0.07 0.05 0.01 0.04 0.02 0.03 0.11 0.28 0.81 1.25 1.47 1.20 0.97 1.58 1.90 0.37 0.18 0.15
0.00 0.00 0.00 0.00 0.00 0.00 0.00 0.00 0.00 0.00 0.00 0.00 0.00 0.01 0.02 0.03 0.02 0.03 0.03 0.04 0.07 0.03 0.00 0.00 0.02 0.04 0.01 0.00 0.00 0.00 0.00 0.00 0.00 0.01 0.05 0.14 0.11 0.11 0.20 0.35 0.13 0.06 0.04
0.00 0.00 0.00 0.00 0.00 0.00 0.00 0.00 0.00 0.00 0.00 0.00 0.00 0.00 0.00 0.00 0.00 0.00 0.01 0.02 0.05 0.10 0.06 0.01 0.03 0.02 0.01 0.00 0.00 0.00 0.00 0.00 0.00 0.00 0.00 0.01 0.01 0.01 0.01 0.01 0.01 0.01 0.01
0.00 0.00 0.00 0.00 0.00 0.00 0.00 0.00 0.00 0.00 0.00 0.00 0.00 0.00 0.00 0.00 0.00 0.00 0.00 0.01 0.02 0.05 0.05 0.01 0.00 0.00 0.00 0.00 0.00 0.00 0.00 0.00 0.00 0.00 0.01 0.01 0.01 0.02 0.02 0.02 0.02 0.02 0.02
0.00 0.00 0.00 0.00 0.00 0.00 0.00 0.00 0.00 0.00 0.00 0.00 0.00 0.00 0.00 0.00 0.00 0.00 0.00 0.00 0.00 0.00 0.00 0.00 0.00 0.00 0.00 0.00 0.00 0.00 0.00 0.00 0.00 0.01 0.01 0.02 0.03 0.03 0.03 0.02 0.02 0.01 0.01
0.00 0.00 0.00 0.00 0.00 0.00 0.00 0.00 0.00 0.00 0.00 0.00 0.00 0.00 0.00 0.00 0.00 0.00 0.00 0.00 0.00 0.00 0.00 0.00 0.00 0.00 0.00 0.00 0.00 0.00 0.00 0.00 0.00 0.00 0.00 0.00 0.02 0.04 0.04 0.02 0.01 0.00 0.01
0.00 0.00 0.00 0.00 0.00 0.00 0.00 0.00 0.00 0.00 0.00 0.00 0.00 0.00 0.00 0.00 0.00 0.00 0.00 0.00 0.00 0.00 0.00 0.00 0.00 0.00 0.00 0.00 0.00 0.00 0.00 0.00 0.00 0.00 0.00 0.00 0.00 0.03 0.06 0.02 0.01 0.01 0.00
0.00 0.00 0.00 0.00 0.00 0.00 0.00 0.00 0.00 0.00 0.00 0.00 0.00 0.00 0.00 0.00 0.01 0.01 0.00 0.00 0.00 0.00 0.00 0.00 0.00 0.00 0.00 0.00 0.00 0.00 0.00 0.00 0.00 0.00 0.00 0.00 0.00 0.00 0.03 0.02 0.01 0.01 0.00
0.00 0.00 0.00 0.00 0.00 0.00 0.00 0.00 0.00 0.00 0.00 0.00 0.00 0.00 0.00 0.01 0.01 0.02 0.01 0.01 0.01 0.00 0.00 0.00 0.00 0.00 0.00 0.00 0.00 0.00 0.00 0.00 0.00 0.00 0.00 0.00 0.00 0.00 0.00 0.00 0.02 0.01 0.00
0.00 0.00 0.00 0.00 0.00 0.00 0.00 0.00 0.00 0.00 0.00 0.00 0.00 0.00 0.00 0.00 0.00 0.00 0.02 0.02 0.01 0.01 0.00 0.00 0.00 0.00 0.00 0.00 0.00 0.00 0.00 0.00 0.00 0.00 0.00 0.00 0.00 0.00 0.00 0.00 0.00 0.00 0.00
0.00 0.00 0.00 0.00 0.00 0.00 0.00 0.00 0.00 0.00 0.00 0.00 0.00 0.00 0.00 0.00 0.00 0.00 0.00 0.00 0.00 0.00 0.00 0.00 0.00 0.00 0.00 0.00 0.00 0.00 0.00 0.00 0.00 0.00 0.00 0.00 0.00 0.00 0.00 0.00 0.00 0.00 0.00
0.00 0.00 0.00 0.00 0.00 0.00 0.00 0.00 0.00 0.00 0.00 0.00 0.00 0.00 0.00 0.00 0.00 0.00 0.00 0.00 0.00 0.00 0.00 0.00 0.00 0.00 0.00 0.00 0.00 0.00 0.00 0.00 0.00 0.00 0.00 0.00 0.00 0.00 0.00 0.00 0.00 0.00 0.00
0.00 0.00 0.00 0.00 0.00 0.00 0.00 0.00 0.00 0.00 0.00 0.00 0.00 0.00 0.00 0.00 0.00 0.00 0.00 0.00 0.00 0.00 0.00 0.00 0.00 0.00 0.00 0.00 0.00 0.00 0.00 0.00 0.00 0.00 0.00 0.00 0.00 0.00 0.00 0.00 0.00 0.00 0.00

GFSMA_prec_precacc24_195.txt.gz
Total_Precipitation_Accumulation
0.00 0.00 0.00 0.00 0.00 0.00 0.00 0.00 0.01 0.01 0.02 0.03 0.04 0.06 0.04 0.02 0.03 0.03 0.02 0.02 0.02 0.01 0.00 0.02 0.06 0.08 0.10 0.11 0.11 0.13 0.13 0.14 0.16 0.18 0.18 0.18 0.16 0.12 0.08 0.07 0.06 0.04 0.03
0.00 0.00 0.00 0.00 0.00 0.00 0.00 0.00 0.00 0.00 0.00 0.00 0.01 0.03 0.05 0.07 0.06 0.06 0.05 0.05 0.06 0.05 0.03 0.02 0.03 0.07 0.09 0.13 0.17 0.20 0.17 0.14 0.14 0.15 0.15 0.17 0.16 0.16 0.15 0.11 0.09 0.08 0.05
0.00 0.00 0.00 0.00 0.00 0.00 0.00 0.00 0.00 0.00 0.00 0.00 0.00 0.00 0.00 0.03 0.07 0.09 0.08 0.07 0.08 0.07 0.06 0.07 0.06 0.08 0.11 0.07 0.13 0.24 0.26 0.20 0.17 0.15 0.16 0.17 0.19 0.17 0.16 0.12 0.11 0.10 0.07
0.00 0.00 0.00 0.00 0.00 0.00 0.00 0.00 0.00 0.00 0.00 0.00 0.00 0.00 0.00 0.00 0.01 0.06 0.11 0.11 0.10 0.08 0.07 0.06 0.07 0.08 0.10 0.10 0.10 0.17 0.27 0.31 0.31 0.29 0.22 0.17 0.24 0.26 0.22 0.15 0.14 0.14 0.11
0.00 0.00 0.00 0.00 0.00 0.00 0.00 0.00 0.00 0.00 0.00 0.00 0.00 0.00 0.00 0.00 0.00 0.00 0.02 0.06 0.10 0.11 0.11 0.16 0.17 0.16 0.18 0.15 0.11 0.13 0.22 0.36 0.47 0.47 0.43 0.32 0.27 0.28 0.31 0.26 0.21 0.17 0.18
0.00 0.00 0.00 0.00 0.00 0.00 0.00 0.00 0.00 0.00 0.00 0.00 0.00 0.00 0.00 0.00 0.00 0.00 0.00 0.01 0.04 0.11 0.12 0.16 0.18 0.19 0.26 0.27 0.24 0.22 0.26 0.39 0.70 1.00 1.11 0.98 0.73 0.59 0.55 0.48 0.42 0.36 0.34
0.00 0.00 0.00 0.00 0.00 0.00 0.00 0.00 0.00 0.00 0.00 0.00 0.00 0.00 0.00 0.00 0.00 0.00 0.00 0.00 0.01 0.02 0.06 0.07 0.12 0.14 0.18 0.32 0.40 0.30 0.25 0.35 0.50 0.68 1.02 1.59 2.24 2.48 2.02 1.66 1.42 1.51 1.58
0.00 0.00 0.00 0.00 0.00 0.00 0.00 0.00 0.00 0.00 0.00 0.00 0.00 0.00 0.00 0.00 0.00 0.00 0.00 0.00 0.00 0.03 0.06 0.08 0.09 0.12 0.14 0.14 0.19 0.28 0.29 0.33 0.35 0.40 0.68 0.97 1.12 1.62 2.21 2.05 1.75 1.75 1.91
0.00 0.00 0.00 0.00 0.00 0.00 0.00 0.00 0.00 0.00 0.00 0.00 0.00 0.01 0.02 0.01 0.00 0.00 0.00 0.00 0.01 0.01 0.03 0.06 0.06 0.06 0.07 0.11 0.14 0.17 0.21 0.32 0.29 0.28 0.29 0.50 0.63 0.78 1.42 1.62 1.31 1.00 0.91
0.00 0.00 0.00 0.00 0.00 0.00 0.00 0.00 0.00 0.00 0.00 0.00 0.00 0.00 0.01 0.03 0.03 0.01 0.00 0.00 0.01 0.02 0.03 0.05 0.08 0.10 0.12 0.10 0.12 0.12 0.17 0.25 0.25 0.22 0.40 0.53 0.53 0.56 0.88 1.29 1.58 1.54 1.30
0.00 0.00 0.00 0.00 0.00 0.00 0.00 0.00 0.00 0.00 0.00 0.00 0.00 0.00 0.00 0.00 0.01 0.04 0.01 0.00 0.00 0.01 0.02 0.04 0.08 0.14 0.15 0.14 0.16 0.18 0.18 0.25 0.18 0.17 0.30 0.52 0.88 1.05 1.14 1.20 1.42 2.42 2.55
0.00 0.00 0.00 0.00 0.00 0.00 0.00 0.00 0.00 0.00 0.00 0.00 0.00 0.00 0.00 0.01 0.01 0.03 0.04 0.01 0.00 0.00 0.01 0.02 0.03 0.08 0.09 0.09 0.15 0.30 0.27 0.29 0.33 0.30 0.50 0.71 0.88 1.02 0.93 0.93 1.13 1.60 1.25
0.00 0.00 0.00 0.00 0.00 0.00 0.00 0.00 0.00 0.00 0.00 0.00 0.00 0.00 0.00 0.01 0.02 0.05 0.08 0.03 0.00 0.00 0.00 0.00 0.02 0.03 0.01 0.03 0.05 0.13 0.23 0.33 0.53 0.72 1.63 1.74 1.55 0.73 1.77 1.18 1.78 2.45 0.81
0.00 0.00 0.00 0.00 0.00 0.00 0.00 0.00 0.00 0.00 0.00 0.00 0.00 0.00 0.01 0.01 0.03 0.05 0.06 0.05 0.02 0.00 0.00 0.00 0.01 0.07 0.05 0.01 0.03 0.01 0.02 0.11 0.28 0.81 1.25 1.47 1.21 0.97 1.62 2.09 1.11 0.78 0.35
0.00 0.00 0.00 0.00 0.00 0.00 0.00 0.00 0.00 0.00 0.00 0.00 0.00 0.00 0.00 0.00 0.00 0.02 0.03 0.05 0.07 0.03 0.00 0.00 0.02 0.04 0.01 0.00 0.00 0.00 0.00 0.00 0.00 0.01 0.05 0.14 0.12 0.12 0.21 0.36 0.14 0.08 0.10
0.00 0.00 0.00 0.00 0.00 0.00 0.00 0.00 0.00 0.00 0.00 0.00 0.00 0.00 0.00 0.00 0.00 0.00 0.00 0.01 0.04 0.07 0.05 0.01 0.03 0.02 0.01 0.00 0.00 0.00 0.00 0.00 0.00 0.00 0.00 0.01 0.01 0.01 0.01 0.01 0.01 0.01 0.02
0.00 0.00 0.00 0.00 0.00 0.00 0.00 0.00 0.00 0.00 0.00 0.00 0.00 0.00 0.00 0.00 0.00 0.00 0.00 0.00 0.01 0.03 0.05 0.01 0.00 0.00 0.00 0.00 0.00 0.00 0.00 0.00 0.00 0.00 0.01 0.01 0.01 0.02 0.02 0.02 0.02 0.02 0.02
0.00 0.00 0.00 0.00 0.00 0.00 0.00 0.00 0.00 0.00 0.00 0.00 0.00 0.00 0.00 0.00 0.00 0.00 0.00 0.00 0.00 0.00 0.00 0.00 0.00 0.00 0.00 0.00 0.00 0.00 0.00 0.00 0.00 0.01 0.01 0.02 0.03 0.03 0.02 0.02 0.01 0.01 0.01
0.00 0.00 0.00 0.00 0.00 0.00 0.00 0.00 0.00 0.00 0.00 0.00 0.00 0.00 0.00 0.00 0.00 0.00 0.00 0.00 0.00 0.00 0.00 0.00 0.00 0.00 0.00 0.00 0.00 0.00 0.00 0.00 0.00 0.00 0.00 0.00 0.03 0.05 0.03 0.01 0.01 0.00 0.01
0.00 0.00 0.00 0.00 0.00 0.00 0.00 0.00 0.00 0.00 0.00 0.00 0.00 0.00 0.00 0.00 0.00 0.00 0.00 0.00 0.00 0.00 0.00 0.00 0.00 0.00 0.00 0.00 0.00 0.00 0.00 0.00 0.00 0.00 0.00 0.00 0.00 0.03 0.06 0.02 0.01 0.01 0.00
0.00 0.00 0.00 0.00 0.00 0.00 0.00 0.00 0.00 0.00 0.00 0.00 0.00 0.00 0.00 0.00 0.01 0.00 0.00 0.00 0.00 0.00 0.00 0.00 0.00 0.00 0.00 0.00 0.00 0.00 0.00 0.00 0.00 0.00 0.00 0.00 0.00 0.00 0.04 0.02 0.01 0.01 0.00
0.00 0.00 0.00 0.00 0.00 0.00 0.00 0.00 0.00 0.00 0.00 0.00 0.00 0.00 0.00 0.01 0.00 0.01 0.01 0.01 0.01 0.00 0.00 0.00 0.00 0.00 0.00 0.00 0.00 0.00 0.00 0.00 0.00 0.00 0.00 0.00 0.00 0.00 0.00 0.00 0.02 0.01 0.00
0.00 0.00 0.00 0.00 0.00 0.00 0.00 0.00 0.00 0.00 0.00 0.00 0.00 0.00 0.00 0.00 0.00 0.00 0.01 0.01 0.00 0.00 0.00 0.00 0.00 0.00 0.00 0.00 0.00 0.00 0.00 0.00 0.00 0.00 0.00 0.00 0.00 0.00 0.00 0.00 0.00 0.00 0.00
0.00 0.00 0.00 0.00 0.00 0.00 0.00 0.00 0.00 0.00 0.00 0.00 0.00 0.00 0.00 0.00 0.00 0.00 0.00 0.00 0.00 0.00 0.00 0.00 0.00 0.00 0.00 0.00 0.00 0.00 0.00 0.00 0.00 0.00 0.00 0.00 0.00 0.00 0.00 0.00 0.00 0.00 0.00
0.00 0.00 0.00 0.00 0.00 0.00 0.00 0.00 0.00 0.00 0.00 0.00 0.00 0.00 0.00 0.00 0.00 0.00 0.00 0.00 0.00 0.00 0.00 0.00 0.00 0.00 0.00 0.00 0.00 0.00 0.00 0.00 0.00 0.00 0.00 0.00 0.00 0.00 0.00 0.00 0.00 0.00 0.00
0.00 0.00 0.00 0.00 0.00 0.00 0.00 0.00 0.00 0.00 0.00 0.00 0.00 0.00 0.00 0.00 0.00 0.00 0.00 0.00 0.00 0.00 0.00 0.00 0.00 0.00 0.00 0.00 0.00 0.00 0.00 0.00 0.00 0.00 0.00 0.00 0.00 0.00 0.00 0.00 0.00 0.00 0.00

GFSMA_prec_precacc24_198.txt.gz
Total_Precipitation_Accumulation
0.00 0.00 0.00 0.00 0.00 0.00 0.00 0.00 0.00 0.00 0.00 0.00 0.00 0.00 0.01 0.01 0.02 0.03 0.02 0.02 0.02 0.01 0.00 0.02 0.06 0.08 0.10 0.11 0.11 0.13 0.13 0.14 0.16 0.18 0.18 0.19 0.19 0.19 0.17 0.15 0.14 0.14 0.11
0.00 0.00 0.00 0.00 0.00 0.00 0.00 0.00 0.00 0.00 0.00 0.00 0.00 0.00 0.00 0.01 0.01 0.02 0.02 0.04 0.06 0.05 0.02 0.01 0.03 0.07 0.09 0.13 0.17 0.20 0.17 0.14 0.14 0.15 0.15 0.17 0.16 0.17 0.16 0.16 0.17 0.19 0.16
0.00 0.00 0.00 0.00 0.00 0.00 0.00 0.00 0.00 0.00 0.00 0.00 0.00 0.00 0.00 0.00 0.00 0.00 0.01 0.02 0.05 0.06 0.06 0.06 0.04 0.08 0.10 0.07 0.13 0.22 0.24 0.20 0.17 0.15 0.16 0.17 0.19 0.17 0.16 0.12 0.11 0.14 0.16
0.00 0.00 0.00 0.00 0.00 0.00 0.00 0.00 0.00 0.00 0.00 0.00 0.00 0.00 0.00 0.00 0.00 0.00 0.00 0.00 0.02 0.05 0.06 0.05 0.06 0.07 0.09 0.09 0.11 0.17 0.26 0.30 0.30 0.28 0.22 0.17 0.24 0.26 0.22 0.15 0.14 0.14 0.11
0.00 0.00 0.00 0.00 0.00 0.00 0.00 0.00 0.00 0.00 0.00 0.00 0.00 0.00 0.00 0.00 0.00 0.00 0.00 0.00 0.00 0.01 0.03 0.11 0.15 0.15 0.15 0.13 0.12 0.14 0.23 0.33 0.41 0.40 0.38 0.31 0.27 0.28 0.31 0.25 0.21 0.16 0.18
0.00 0.00 0.00 0.00 0.00 0.00 0.00 0.00 0.00 0.00 0.00 0.00 0.00 0.00 0.00 0.00 0.00 0.00 0.00 0.00 0.00 0.00 0.00 0.05 0.11 0.15 0.24 0.24 0.23 0.22 0.25 0.38 0.66 0.96 1.07 0.96 0.71 0.58 0.53 0.48 0.42 0.36 0.34
0.00 0.00 0.00 0.00 0.00 0.00 0.00 0.00 0.00 0.00 0.00 0.00 0.00 0.00 0.00 0.00 0.00 0.00 0.00 0.00 0.00 0.00 0.00 0.00 0.01 0.03 0.08 0.20 0.32 0.29 0.24 0.33 0.48 0.65 0.98 1.54 2.20 2.43 1.99 1.63 1.41 1.51 1.59
0.00 0.00 0.00 0.00 0.00 0.00 0.00 0.00 0.00 0.00 0.00 0.00 0.00 0.00 0.00 0.00 0.00 0.00 0.00 0.00 0.00 0.00 0.00 0.00 0.00 0.01 0.01 0.03 0.08 0.18 0.25 0.32 0.34 0.39 0.63 0.92 1.07 1.55 2.13 1.99 1.71 1.72 1.89
0.00 0.00 0.00 0.00 0.00 0.00 0.00 0.00 0.00 0.00 0.00 0.00 0.00 0.00 0.01 0.01 0.00 0.00 0.00 0.00 0.00 0.00 0.00 0.00 0.01 0.02 0.03 0.02 0.07 0.09 0.13 0.28 0.27 0.28 0.29 0.48 0.59 0.71 1.32 1.55 1.25 0.95 0.86
0.00 0.00 0.00 0.00 0.00 0.00 0.00 0.00 0.00 0.00 0.00 0.00 0.00 0.00 0.00 0.01 0.01 0.01 0.00 0.00 0.00 0.00 0.00 0.00 0.02 0.04 0.05 0.05 0.07 0.07 0.12 0.21 0.21 0.21 0.40 0.51 0.49 0.50 0.77 1.16 1.45 1.42 1.17
0.00 0.00 0.00 0.00 0.00 0.00 0.00 0.00 0.00 0.00 0.00 0.00 0.00 0.00 0.00 0.00 0.00 0.02 0.01 0.00 0.00 0.00 0.00 0.00 0.03 0.08 0.08 0.08 0.11 0.13 0.13 0.22 0.16 0.17 0.30 0.51 0.82 0.94 1.04 1.07 1.21 2.09 2.11
0.00 0.00 0.00 0.00 0.00 0.00 0.00 0.00 0.00 0.00 0.00 0.00 0.00 0.00 0.00 0.01 0.00 0.02 0.03 0.01 0.00 0.00 0.00 0.00 0.01 0.05 0.06 0.07 0.13 0.27 0.25 0.26 0.32 0.30 0.44 0.66 0.84 0.99 0.92 0.92 1.13 1.63 1.27
0.00 0.00 0.00 0.00 0.00 0.00 0.00 0.00 0.00 0.00 0.00 0.00 0.00 0.00 0.00 0.01 0.01 0.04 0.05 0.02 0.00 0.00 0.00 0.00 0.02 0.03 0.01 0.03 0.05 0.13 0.23 0.33 0.53 0.69 1.50 1.65 1.52 0.73 1.77 1.20 1.90 2.81 1.09
0.00 0.00 0.00 0.00 0.00 0.00 0.00 0.00 0.00 0.00 0.00 0.00 0.00 0.00 0.00 0.00 0.01 0.03 0.05 0.05 0.02 0.00 0.00 0.00 0.01 0.07 0.05 0.01 0.03 0.01 0.02 0.10 0.27 0.80 1.22 1.45 1.21 0.98 1.62 2.10 1.14 0.87 0.52
0.00 0.00 0.00 0.00 0.00 0.00 0.00 0.00 0.00 0.00 0.00 0.00 0.00 0.00 0.00 0.00 0.00 0.00 0.01 0.04 0.07 0.03 0.00 0.00 0.02 0.04 0.01 0.00 0.00 0.00 0.00 0.00 0.00 0.01 0.05 0.14 0.12 0.13 0.21 0.36 0.14 0.09 0.14
0.00 0.00 0.00 0.00 0.00 0.00 0.00 0.00 0.00 0.00 0.00 0.00 0.00 0.00 0.00 0.00 0.00 0.00 0.00 0.01 0.03 0.06 0.04 0.01 0.03 0.02 0.01 0.00 0.00 0.00 0.00 0.00 0.00 0.00 0.00 0.01 0.01 0.01 0.02 0.01 0.01 0.01 0.01
0.00 0.00 0.00 0.00 0.00 0.00 0.00 0.00 0.00 0.00 0.00 0.00 0.00 0.00 0.00 0.00 0.00 0.00 0.00 0.00 0.00 0.01 0.03 0.01 0.00 0.00 0.00 0.00 0.00 0.00 0.00 0.00 0.00 0.00 0.01 0.01 0.02 0.02 0.02 0.02 0.02 0.02 0.02
0.00 0.00 0.00 0.00 0.00 0.00 0.00 0.00 0.00 0.00 0.00 0.00 0.00 0.00 0.00 0.00 0.00 0.00 0.00 0.00 0.00 0.00 0.00 0.00 0.00 0.00 0.00 0.00 0.00 0.00 0.00 0.00 0.00 0.01 0.01 0.02 0.03 0.04 0.03 0.02 0.01 0.01 0.01
0.00 0.00 0.00 0.00 0.00 0.00 0.00 0.00 0.00 0.00 0.00 0.00 0.00 0.00 0.00 0.00 0.00 0.00 0.00 0.00 0.00 0.00 0.00 0.00 0.00 0.00 0.00 0.00 0.00 0.00 0.00 0.00 0.00 0.00 0.00 0.00 0.03 0.04 0.03 0.01 0.01 0.00 0.00
0.00 0.00 0.00 0.00 0.00 0.00 0.00 0.00 0.00 0.00 0.00 0.00 0.00 0.00 0.00 0.00 0.00 0.00 0.00 0.00 0.00 0.00 0.00 0.00 0.00 0.00 0.00 0.00 0.00 0.00 0.00 0.00 0.00 0.00 0.00 0.00 0.00 0.03 0.06 0.02 0.00 0.00 0.00
0.00 0.00 0.00 0.00 0.00 0.00 0.00 0.00 0.00 0.00 0.00 0.00 0.00 0.00 0.00 0.00 0.00 0.00 0.00 0.00 0.00 0.00 0.00 0.00 0.00 0.00 0.00 0.00 0.00 0.00 0.00 0.00 0.00 0.00 0.00 0.00 0.00 0.00 0.04 0.02 0.01 0.01 0.00
0.00 0.00 0.00 0.00 0.00 0.00 0.00 0.00 0.00 0.00 0.00 0.00 0.00 0.00 0.00 0.00 0.00 0.00 0.00 0.01 0.00 0.00 0.00 0.00 0.00 0.00 0.00 0.00 0.00 0.00 0.00 0.00 0.00 0.00 0.00 0.00 0.00 0.00 0.00 0.00 0.01 0.01 0.00
0.00 0.00 0.00 0.00 0.00 0.00 0.00 0.00 0.00 0.00 0.00 0.00 0.00 0.00 0.00 0.00 0.00 0.00 0.00 0.00 0.00 0.00 0.00 0.00 0.00 0.00 0.00 0.00 0.00 0.00 0.00 0.00 0.00 0.00 0.00 0.00 0.00 0.00 0.00 0.00 0.00 0.00 0.00
0.00 0.00 0.00 0.00 0.00 0.00 0.00 0.00 0.00 0.00 0.00 0.00 0.00 0.00 0.00 0.00 0.00 0.00 0.00 0.00 0.00 0.00 0.00 0.00 0.00 0.00 0.00 0.00 0.00 0.00 0.00 0.00 0.00 0.00 0.00 0.00 0.00 0.00 0.00 0.00 0.00 0.00 0.00
0.00 0.00 0.00 0.00 0.00 0.00 0.00 0.00 0.00 0.00 0.00 0.00 0.00 0.00 0.00 0.00 0.00 0.00 0.00 0.00 0.00 0.00 0.00 0.00 0.00 0.00 0.00 0.00 0.00 0.00 0.00 0.00 0.00 0.00 0.00 0.00 0.00 0.00 0.00 0.00 0.00 0.00 0.00
0.00 0.00 0.00 0.00 0.00 0.00 0.00 0.00 0.00 0.00 0.00 0.00 0.00 0.00 0.00 0.00 0.00 0.00 0.00 0.00 0.00 0.00 0.00 0.00 0.00 0.00 0.00 0.00 0.00 0.00 0.00 0.00 0.00 0.00 0.00 0.00 0.00 0.00 0.00 0.00 0.00 0.00 0.00

GFSMA_prec_precacc24_201.txt.gz
Total_Precipitation_Accumulation
0.00 0.00 0.00 0.00 0.00 0.00 0.00 0.00 0.00 0.00 0.00 0.00 0.00 0.00 0.00 0.00 0.00 0.00 0.00 0.00 0.01 0.01 0.00 0.01 0.05 0.08 0.09 0.10 0.11 0.13 0.12 0.14 0.16 0.18 0.18 0.19 0.19 0.19 0.18 0.17 0.18 0.21 0.17
0.00 0.00 0.00 0.00 0.00 0.00 0.00 0.00 0.00 0.00 0.00 0.00 0.00 0.00 0.00 0.00 0.00 0.00 0.00 0.00 0.00 0.01 0.01 0.00 0.01 0.04 0.08 0.12 0.17 0.20 0.17 0.14 0.15 0.16 0.16 0.17 0.16 0.17 0.16 0.16 0.17 0.23 0.23
0.00 0.00 0.00 0.00 0.00 0.00 0.00 0.00 0.00 0.00 0.00 0.00 0.00 0.00 0.00 0.00 0.00 0.00 0.00 0.00 0.00 0.00 0.01 0.02 0.01 0.02 0.04 0.05 0.13 0.22 0.25 0.20 0.17 0.15 0.16 0.17 0.19 0.17 0.16 0.12 0.11 0.14 0.16
0.00 0.00 0.00 0.00 0.00 0.00 0.00 0.00 0.00 0.00 0.00 0.00 0.00 0.00 0.00 0.00 0.00 0.00 0.00 0.00 0.00 0.00 0.00 0.00 0.02 0.02 0.04 0.06 0.11 0.18 0.27 0.30 0.29 0.26 0.20 0.15 0.23 0.25 0.20 0.14 0.13 0.14 0.11
0.00 0.00 0.00 0.00 0.00 0.00 0.00 0.00 0.00 0.00 0.00 0.00 0.00 0.00 0.00 0.00 0.00 0.00 0.00 0.00 0.00 0.00 0.00 0.00 0.00 0.01 0.04 0.08 0.10 0.12 0.19 0.28 0.36 0.37 0.36 0.30 0.26 0.26 0.28 0.23 0.19 0.16 0.18
0.00 0.00 0.00 0.00 0.00 0.00 0.00 0.00 0.00 0.00 0.00 0.00 0.00 0.00 0.00 0.00 0.00 0.00 0.00 0.00 0.00 0.00 0.00 0.00 0.00 0.00 0.03 0.12 0.15 0.17 0.20 0.29 0.55 0.89 1.04 0.94 0.69 0.56 0.52 0.46 0.40 0.36 0.35
0.00 0.00 0.00 0.00 0.00 0.00 0.00 0.00 0.00 0.00 0.00 0.00 0.00 0.00 0.00 0.00 0.00 0.00 0.00 0.00 0.00 0.00 0.00 0.00 0.00 0.00 0.00 0.00 0.05 0.18 0.20 0.28 0.38 0.54 0.91 1.48 2.13 2.38 1.96 1.60 1.38 1.50 1.57
0.00 0.00 0.00 0.00 0.00 0.00 0.00 0.00 0.00 0.00 0.00 0.00 0.00 0.00 0.00 0.00 0.00 0.00 0.00 0.00 0.00 0.00 0.00 0.00 0.00 0.01 0.00 0.00 0.01 0.02 0.11 0.28 0.32 0.33 0.54 0.84 1.03 1.52 2.11 1.97 1.66 1.68 1.85
0.00 0.00 0.00 0.00 0.00 0.00 0.00 0.00 0.00 0.00 0.00 0.00 0.00 0.00 0.00 0.00 0.00 0.00 0.00 0.00 0.00 0.00 0.00 0.00 0.00 0.01 0.01 0.01 0.03 0.03 0.04 0.10 0.15 0.23 0.26 0.45 0.54 0.69 1.29 1.51 1.21 0.90 0.81
0.00 0.00 0.00 0.00 0.00 0.00 0.00 0.00 0.00 0.00 0.00 0.00 0.00 0.00 0.00 0.00 0.00 0.00 0.00 0.00 0.00 0.00 0.00 0.00 0.00 0.00 0.02 0.03 0.06 0.04 0.04 0.11 0.15 0.17 0.36 0.49 0.46 0.43 0.68 1.07 1.35 1.32 0.97
0.00 0.00 0.00 0.00 0.00 0.00 0.00 0.00 0.00 0.00 0.00 0.00 0.00 0.00 0.00 0.00 0.00 0.01 0.00 0.00 0.00 0.00 0.00 0.00 0.00 0.00 0.02 0.04 0.09 0.13 0.12 0.18 0.13 0.16 0.29 0.44 0.69 0.78 0.91 0.96 1.14 1.98 1.68
0.00 0.00 0.00 0.00 0.00 0.00 0.00 0.00 0.00 0.00 0.00 0.00 0.00 0.00 0.00 0.01 0.00 0.02 0.02 0.01 0.00 0.00 0.00 0.00 0.00 0.00 0.01 0.06 0.12 0.24 0.22 0.24 0.31 0.29 0.43 0.60 0.76 0.93 0.92 0.94 1.16 1.72 1.30
0.00 0.00 0.00 0.00 0.00 0.00 0.00 0.00 0.00 0.00 0.00 0.00 0.00 0.00 0.00 0.01 0.01 0.03 0.04 0.01 0.00 0.00 0.00 0.00 0.00 0.00 0.00 0.02 0.04 0.13 0.23 0.33 0.52 0.68 1.45 1.61 1.50 0.72 1.79 1.23 1.93 2.86 1.13
0.00 0.00 0.00 0.00 0.00 0.00 0.00 0.00 0.00 0.00 0.00 0.00 0.00 0.00 0.00 0.00 0.01 0.02 0.04 0.04 0.02 0.00 0.00 0.00 0.00 0.04 0.04 0.01 0.03 0.01 0.02 0.10 0.26 0.79 1.21 1.44 1.22 0.98 1.63 2.11 1.15 0.88 0.53
0.00 0.00 0.00 0.00 0.00 0.00 0.00 0.00 0.00 0.00 0.00 0.00 0.00 0.00 0.00 0.00 0.00 0.00 0.01 0.03 0.05 0.02 0.00 0.00 0.02 0.04 0.01 0.00 0.00 0.00 0.00 0.00 0.00 0.02 0.05 0.14 0.12 0.13 0.21 0.36 0.15 0.09 0.14
0.00 0.00 0.00 0.00 0.00 0.00 0.00 0.00 0.00 0.00 0.00 0.00 0.00 0.00 0.00 0.00 0.00 0.00 0.00 0.01 0.02 0.05 0.04 0.00 0.02 0.01 0.01 0.00 0.00 0.00 0.00 0.00 0.00 0.01 0.00 0.01 0.02 0.01 0.02 0.01 0.01 0.01 0.01
0.00 0.00 0.00 0.00 0.00 0.00 0.00 0.00 0.00 0.00 0.00 0.00 0.00 0.00 0.00 0.00 0.00 0.00 0.00 0.00 0.00 0.01 0.02 0.00 0.00 0.00 0.00 0.00 0.00 0.00 0.00 0.00 0.00 0.00 0.01 0.01 0.02 0.02 0.02 0.02 0.02 0.01 0.02
0.00 0.00 0.00 0.00 0.00 0.00 0.00 0.00 0.00 0.00 0.00 0.00 0.00 0.00 0.00 0.00 0.00 0.00 0.00 0.00 0.00 0.00 0.00 0.00 0.00 0.00 0.00 0.00 0.00 0.00 0.00 0.00 0.00 0.01 0.01 0.02 0.03 0.04 0.02 0.02 0.01 0.01 0.01
0.00 0.00 0.00 0.00 0.00 0.00 0.00 0.00 0.00 0.00 0.00 0.00 0.00 0.00 0.00 0.00 0.00 0.00 0.00 0.00 0.00 0.00 0.00 0.00 0.00 0.00 0.00 0.00 0.00 0.00 0.00 0.00 0.00 0.00 0.00 0.00 0.02 0.04 0.03 0.01 0.01 0.00 0.00
0.00 0.00 0.00 0.00 0.00 0.00 0.00 0.00 0.00 0.00 0.00 0.00 0.00 0.00 0.00 0.00 0.00 0.00 0.00 0.00 0.00 0.00 0.00 0.00 0.00 0.00 0.00 0.00 0.00 0.00 0.00 0.00 0.00 0.00 0.00 0.00 0.00 0.03 0.06 0.02 0.00 0.00 0.00
0.00 0.00 0.00 0.00 0.00 0.00 0.00 0.00 0.00 0.00 0.00 0.00 0.00 0.00 0.00 0.00 0.00 0.00 0.00 0.00 0.00 0.00 0.00 0.00 0.00 0.00 0.00 0.00 0.00 0.00 0.00 0.00 0.00 0.00 0.00 0.00 0.00 0.00 0.04 0.02 0.00 0.00 0.00
0.00 0.00 0.00 0.00 0.00 0.00 0.00 0.00 0.00 0.00 0.00 0.00 0.00 0.00 0.00 0.00 0.00 0.00 0.00 0.00 0.00 0.00 0.00 0.00 0.00 0.00 0.00 0.00 0.00 0.00 0.00 0.00 0.00 0.00 0.00 0.00 0.00 0.00 0.00 0.00 0.00 0.00 0.00
0.00 0.00 0.00 0.00 0.00 0.00 0.00 0.00 0.00 0.00 0.00 0.00 0.00 0.00 0.00 0.00 0.00 0.00 0.00 0.00 0.00 0.00 0.00 0.00 0.00 0.00 0.00 0.00 0.00 0.00 0.00 0.00 0.00 0.00 0.00 0.00 0.00 0.00 0.00 0.00 0.00 0.00 0.00
0.00 0.00 0.00 0.00 0.00 0.00 0.00 0.00 0.00 0.00 0.00 0.00 0.00 0.00 0.00 0.00 0.00 0.00 0.00 0.00 0.00 0.00 0.00 0.00 0.00 0.00 0.00 0.00 0.00 0.00 0.00 0.00 0.00 0.00 0.00 0.00 0.00 0.00 0.00 0.00 0.00 0.00 0.00
0.00 0.00 0.00 0.00 0.00 0.00 0.00 0.00 0.00 0.00 0.00 0.00 0.00 0.00 0.00 0.00 0.00 0.00 0.00 0.00 0.00 0.00 0.00 0.00 0.00 0.00 0.00 0.00 0.00 0.00 0.00 0.00 0.00 0.00 0.00 0.00 0.00 0.00 0.00 0.00 0.00 0.00 0.00
0.00 0.00 0.00 0.00 0.00 0.00 0.00 0.00 0.00 0.00 0.00 0.00 0.00 0.00 0.00 0.00 0.00 0.00 0.00 0.00 0.00 0.00 0.00 0.00 0.00 0.00 0.00 0.00 0.00 0.00 0.00 0.00 0.00 0.00 0.00 0.00 0.00 0.00 0.00 0.00 0.00 0.00 0.00

GFSMA_prec_precacc24_204.txt.gz
Total_Precipitation_Accumulation
0.00 0.00 0.00 0.00 0.00 0.00 0.00 0.00 0.00 0.00 0.00 0.00 0.00 0.00 0.00 0.00 0.00 0.00 0.00 0.00 0.00 0.00 0.00 0.01 0.04 0.05 0.07 0.08 0.09 0.11 0.12 0.14 0.16 0.18 0.18 0.19 0.19 0.19 0.18 0.16 0.18 0.23 0.22
0.00 0.00 0.00 0.00 0.00 0.00 0.00 0.00 0.00 0.00 0.00 0.00 0.00 0.00 0.00 0.00 0.00 0.00 0.00 0.00 0.00 0.00 0.00 0.00 0.00 0.03 0.05 0.08 0.12 0.16 0.16 0.14 0.16 0.17 0.16 0.16 0.16 0.16 0.16 0.16 0.17 0.22 0.22
0.00 0.00 0.00 0.00 0.00 0.00 0.00 0.00 0.00 0.00 0.00 0.00 0.00 0.00 0.00 0.00 0.00 0.00 0.00 0.00 0.00 0.00 0.00 0.00 0.00 0.01 0.01 0.03 0.08 0.17 0.22 0.20 0.17 0.15 0.15 0.16 0.18 0.17 0.16 0.12 0.11 0.14 0.15
0.00 0.00 0.00 0.00 0.00 0.00 0.00 0.00 0.00 0.00 0.00 0.00 0.00 0.00 0.00 0.00 0.00 0.00 0.00 0.00 0.00 0.00 0.00 0.00 0.00 0.00 0.02 0.07 0.15 0.19 0.20 0.22 0.25 0.25 0.19 0.14 0.21 0.23 0.18 0.14 0.13 0.14 0.11
0.00 0.00 0.00 0.00 0.00 0.00 0.00 0.00 0.00 0.00 0.00 0.00 0.00 0.00 0.00 0.00 0.00 0.00 0.00 0.00 0.00 0.00 0.00 0.00 0.00 0.01 0.01 0.03 0.04 0.06 0.08 0.14 0.23 0.30 0.32 0.29 0.26 0.25 0.27 0.22 0.17 0.16 0.18
0.00 0.00 0.00 0.00 0.00 0.00 0.00 0.00 0.00 0.00 0.00 0.00 0.00 0.00 0.00 0.00 0.00 0.00 0.00 0.00 0.00 0.00 0.00 0.00 0.00 0.00 0.01 0.01 0.00 0.00 0.01 0.04 0.31 0.65 0.75 0.72 0.59 0.50 0.48 0.43 0.39 0.36 0.35
0.00 0.00 0.00 0.00 0.00 0.00 0.00 0.00 0.00 0.00 0.00 0.00 0.00 0.00 0.00 0.00 0.00 0.00 0.00 0.00 0.00 0.00 0.00 0.00 0.00 0.00 0.00 0.00 0.00 0.00 0.00 0.01 0.10 0.24 0.69 1.16 1.72 2.19 1.91 1.59 1.39 1.51 1.58
0.00 0.00 0.00 0.00 0.00 0.00 0.00 0.00 0.00 0.00 0.00 0.00 0.00 0.00 0.00 0.00 0.00 0.00 0.00 0.00 0.00 0.00 0.00 0.00 0.00 0.00 0.00 0.00 0.00 0.01 0.01 0.01 0.05 0.09 0.34 0.69 0.89 1.42 2.09 1.96 1.66 1.68 1.85
0.00 0.00 0.00 0.00 0.00 0.00 0.00 0.00 0.00 0.00 0.00 0.00 0.00 0.00 0.00 0.00 0.00 0.00 0.00 0.00 0.00 0.00 0.00 0.00 0.00 0.00 0.00 0.00 0.00 0.00 0.01 0.02 0.02 0.07 0.13 0.34 0.46 0.60 1.23 1.49 1.19 0.87 0.76
0.00 0.00 0.00 0.00 0.00 0.00 0.00 0.00 0.00 0.00 0.00 0.00 0.00 0.00 0.00 0.00 0.00 0.00 0.00 0.00 0.00 0.00 0.00 0.00 0.00 0.00 0.00 0.00 0.01 0.01 0.03 0.07 0.06 0.08 0.16 0.28 0.33 0.32 0.54 0.97 1.25 1.19 0.79
0.00 0.00 0.00 0.00 0.00 0.00 0.00 0.00 0.00 0.00 0.00 0.00 0.00 0.00 0.00 0.00 0.00 0.01 0.00 0.00 0.00 0.00 0.00 0.00 0.00 0.00 0.00 0.00 0.01 0.04 0.07 0.15 0.08 0.13 0.19 0.28 0.39 0.50 0.66 0.74 0.98 1.92 1.63
0.00 0.00 0.00 0.00 0.00 0.00 0.00 0.00 0.00 0.00 0.00 0.00 0.00 0.00 0.00 0.01 0.00 0.02 0.01 0.00 0.00 0.00 0.00 0.00 0.00 0.00 0.00 0.00 0.01 0.07 0.08 0.15 0.28 0.26 0.32 0.43 0.58 0.86 0.84 0.88 1.15 1.75 1.32
0.00 0.00 0.00 0.00 0.00 0.00 0.00 0.00 0.00 0.00 0.00 0.00 0.00 0.00 0.00 0.01 0.01 0.03 0.02 0.01 0.00 0.00 0.00 0.00 0.00 0.00 0.00 0.00 0.00 0.01 0.07 0.17 0.38 0.52 1.40 1.56 1.47 0.72 1.79 1.24 1.94 2.88 1.14
0.00 0.00 0.00 0.00 0.00 0.00 0.00 0.00 0.00 0.00 0.00 0.00 0.00 0.00 0.00 0.00 0.01 0.02 0.03 0.03 0.01 0.00 0.00 0.00 0.00 0.01 0.00 0.00 0.00 0.00 0.00 0.03 0.15 0.68 1.16 1.43 1.21 0.98 1.63 2.11 1.15 0.89 0.54
0.00 0.00 0.00 0.00 0.00 0.00 0.00 0.00 0.00 0.00 0.00 0.00 0.00 0.00 0.00 0.00 0.00 0.00 0.01 0.02 0.05 0.02 0.00 0.00 0.00 0.01 0.00 0.00 0.00 0.00 0.00 0.00 0.00 0.02 0.05 0.14 0.13 0.13 0.21 0.36 0.15 0.09 0.14
0.00 0.00 0.00 0.00 0.00 0.00 0.00 0.00 0.00 0.00 0.00 0.00 0.00 0.00 0.00 0.00 0.00 0.00 0.00 0.01 0.02 0.05 0.04 0.00 0.01 0.00 0.00 0.00 0.00 0.00 0.00 0.00 0.00 0.01 0.01 0.00 0.01 0.02 0.02 0.02 0.01 0.01 0.01
0.00 0.00 0.00 0.00 0.00 0.00 0.00 0.00 0.00 0.00 0.00 0.00 0.00 0.00 0.00 0.00 0.00 0.00 0.00 0.00 0.00 0.01 0.02 0.00 0.00 0.00 0.00 0.00 0.00 0.00 0.00 0.00 0.00 0.00 0.00 0.01 0.02 0.02 0.02 0.02 0.01 0.01 0.01
0.00 0.00 0.00 0.00 0.00 0.00 0.00 0.00 0.00 0.00 0.00 0.00 0.00 0.00 0.00 0.00 0.00 0.00 0.00 0.00 0.00 0.00 0.00 0.00 0.00 0.00 0.00 0.00 0.00 0.00 0.00 0.00 0.00 0.00 0.00 0.01 0.03 0.03 0.02 0.01 0.01 0.00 0.00
0.00 0.00 0.00 0.00 0.00 0.00 0.00 0.00 0.00 0.00 0.00 0.00 0.00 0.00 0.00 0.00 0.00 0.00 0.00 0.00 0.00 0.00 0.00 0.00 0.00 0.00 0.00 0.00 0.00 0.00 0.00 0.00 0.00 0.00 0.00 0.00 0.02 0.03 0.02 0.01 0.00 0.00 0.00
0.00 0.00 0.00 0.00 0.00 0.00 0.00 0.00 0.00 0.00 0.00 0.00 0.00 0.00 0.00 0.00 0.00 0.00 0.00 0.00 0.00 0.00 0.00 0.00 0.00 0.00 0.00 0.00 0.00 0.00 0.00 0.00 0.00 0.00 0.00 0.00 0.00 0.02 0.05 0.02 0.00 0.00 0.00
0.00 0.00 0.00 0.00 0.00 0.00 0.00 0.00 0.00 0.00 0.00 0.00 0.00 0.00 0.00 0.00 0.00 0.00 0.00 0.00 0.00 0.00 0.00 0.00 0.00 0.00 0.00 0.00 0.00 0.00 0.00 0.00 0.00 0.00 0.00 0.00 0.00 0.00 0.04 0.01 0.00 0.00 0.00
0.00 0.00 0.00 0.00 0.00 0.00 0.00 0.00 0.00 0.00 0.00 0.00 0.00 0.00 0.00 0.00 0.00 0.00 0.00 0.00 0.00 0.00 0.00 0.00 0.00 0.00 0.00 0.00 0.00 0.00 0.00 0.00 0.00 0.00 0.00 0.00 0.00 0.00 0.00 0.00 0.00 0.00 0.00
0.00 0.00 0.00 0.00 0.00 0.00 0.00 0.00 0.00 0.00 0.00 0.00 0.00 0.00 0.00 0.00 0.00 0.00 0.00 0.00 0.00 0.00 0.00 0.00 0.00 0.00 0.00 0.00 0.00 0.00 0.00 0.00 0.00 0.00 0.00 0.00 0.00 0.00 0.00 0.00 0.00 0.00 0.00
0.00 0.00 0.00 0.00 0.00 0.00 0.00 0.00 0.00 0.00 0.00 0.00 0.00 0.00 0.00 0.00 0.00 0.00 0.00 0.00 0.00 0.00 0.00 0.00 0.00 0.00 0.00 0.00 0.00 0.00 0.00 0.00 0.00 0.00 0.00 0.00 0.00 0.00 0.00 0.00 0.00 0.00 0.00
0.00 0.00 0.00 0.00 0.00 0.00 0.00 0.00 0.00 0.00 0.00 0.00 0.00 0.00 0.00 0.00 0.00 0.00 0.00 0.00 0.00 0.00 0.00 0.00 0.00 0.00 0.00 0.00 0.00 0.00 0.00 0.00 0.00 0.00 0.00 0.00 0.00 0.00 0.00 0.00 0.00 0.00 0.00
0.00 0.00 0.00 0.00 0.00 0.00 0.00 0.00 0.00 0.00 0.00 0.00 0.00 0.00 0.00 0.00 0.00 0.00 0.00 0.00 0.00 0.00 0.00 0.00 0.00 0.00 0.00 0.00 0.00 0.00 0.00 0.00 0.00 0.00 0.00 0.00 0.00 0.00 0.00 0.00 0.00 0.00 0.00

GFSMA_prec_precacc24_207.txt.gz
Total_Precipitation_Accumulation
0.00 0.00 0.00 0.00 0.00 0.00 0.00 0.00 0.00 0.00 0.00 0.00 0.00 0.00 0.00 0.00 0.00 0.00 0.00 0.00 0.00 0.00 0.00 0.00 0.01 0.03 0.06 0.07 0.07 0.08 0.10 0.12 0.14 0.17 0.18 0.18 0.18 0.18 0.17 0.16 0.18 0.22 0.22
0.00 0.00 0.00 0.00 0.00 0.00 0.00 0.00 0.00 0.00 0.00 0.00 0.00 0.00 0.00 0.00 0.00 0.00 0.00 0.00 0.00 0.00 0.00 0.00 0.00 0.00 0.01 0.05 0.07 0.11 0.13 0.14 0.16 0.17 0.16 0.16 0.16 0.16 0.16 0.15 0.16 0.22 0.22
0.00 0.00 0.00 0.00 0.00 0.00 0.00 0.00 0.00 0.00 0.00 0.00 0.00 0.00 0.00 0.00 0.00 0.00 0.00 0.00 0.00 0.00 0.00 0.00 0.00 0.00 0.01 0.04 0.08 0.15 0.15 0.14 0.12 0.14 0.14 0.15 0.16 0.16 0.16 0.12 0.11 0.13 0.15
0.00 0.00 0.00 0.00 0.00 0.00 0.00 0.00 0.00 0.00 0.00 0.00 0.00 0.00 0.00 0.00 0.00 0.00 0.00 0.00 0.00 0.00 0.00 0.00 0.00 0.01 0.04 0.09 0.14 0.13 0.10 0.08 0.11 0.19 0.21 0.18 0.21 0.22 0.16 0.13 0.11 0.12 0.11
0.00 0.00 0.00 0.00 0.00 0.00 0.00 0.00 0.00 0.00 0.00 0.00 0.00 0.00 0.00 0.00 0.00 0.00 0.00 0.00 0.00 0.00 0.00 0.00 0.00 0.01 0.01 0.03 0.04 0.03 0.02 0.03 0.09 0.15 0.21 0.24 0.22 0.21 0.21 0.16 0.14 0.14 0.17
0.00 0.00 0.00 0.00 0.00 0.00 0.00 0.00 0.00 0.00 0.00 0.00 0.00 0.00 0.00 0.00 0.00 0.00 0.00 0.00 0.00 0.00 0.00 0.00 0.00 0.00 0.01 0.01 0.00 0.00 0.00 0.01 0.04 0.11 0.20 0.34 0.40 0.38 0.39 0.37 0.35 0.35 0.35
0.00 0.00 0.00 0.00 0.00 0.00 0.00 0.00 0.00 0.00 0.00 0.00 0.00 0.00 0.00 0.00 0.00 0.00 0.00 0.00 0.00 0.00 0.00 0.00 0.00 0.00 0.00 0.00 0.00 0.00 0.00 0.00 0.01 0.04 0.11 0.23 0.68 1.27 1.57 1.53 1.36 1.48 1.57
0.00 0.00 0.00 0.00 0.00 0.00 0.00 0.00 0.00 0.00 0.00 0.00 0.00 0.00 0.00 0.00 0.00 0.00 0.00 0.00 0.00 0.00 0.00 0.00 0.00 0.00 0.00 0.00 0.00 0.01 0.01 0.01 0.02 0.05 0.07 0.15 0.21 0.47 1.26 1.74 1.64 1.67 1.82
0.00 0.00 0.00 0.00 0.00 0.00 0.00 0.00 0.00 0.00 0.00 0.00 0.00 0.00 0.00 0.00 0.00 0.00 0.00 0.00 0.00 0.00 0.00 0.00 0.00 0.00 0.00 0.00 0.00 0.00 0.00 0.01 0.02 0.06 0.09 0.19 0.18 0.13 0.23 0.67 0.95 0.79 0.70
0.00 0.00 0.00 0.00 0.00 0.00 0.00 0.00 0.00 0.00 0.00 0.00 0.00 0.00 0.00 0.00 0.00 0.00 0.00 0.00 0.00 0.00 0.00 0.00 0.00 0.00 0.00 0.00 0.01 0.01 0.01 0.04 0.03 0.08 0.15 0.19 0.24 0.21 0.29 0.39 0.76 0.91 0.70
0.00 0.00 0.00 0.00 0.00 0.00 0.00 0.00 0.00 0.00 0.00 0.00 0.00 0.00 0.00 0.00 0.00 0.01 0.00 0.00 0.00 0.00 0.00 0.00 0.00 0.00 0.00 0.00 0.01 0.00 0.01 0.06 0.03 0.12 0.18 0.23 0.25 0.31 0.45 0.53 0.65 1.50 1.57
0.00 0.00 0.00 0.00 0.00 0.00 0.00 0.00 0.00 0.00 0.00 0.00 0.00 0.00 0.00 0.01 0.00 0.02 0.01 0.00 0.00 0.00 0.00 0.00 0.00 0.00 0.00 0.00 0.00 0.00 0.02 0.04 0.03 0.07 0.21 0.28 0.40 0.35 0.56 0.70 0.87 1.37 1.12
0.00 0.00 0.00 0.00 0.00 0.00 0.00 0.00 0.00 0.00 0.00 0.00 0.00 0.00 0.00 0.01 0.01 0.02 0.02 0.00 0.00 0.00 0.00 0.00 0.00 0.00 0.00 0.00 0.00 0.00 0.00 0.01 0.04 0.17 1.17 1.41 1.39 0.69 1.74 1.20 1.91 2.84 1.10
0.00 0.00 0.00 0.00 0.00 0.00 0.00 0.00 0.00 0.00 0.00 0.00 0.00 0.00 0.00 0.00 0.01 0.02 0.03 0.03 0.01 0.00 0.00 0.00 0.00 0.01 0.00 0.00 0.00 0.00 0.00 0.00 0.02 0.42 0.90 1.27 1.15 0.98 1.63 2.12 1.15 0.89 0.54
0.00 0.00 0.00 0.00 0.00 0.00 0.00 0.00 0.00 0.00 0.00 0.00 0.00 0.00 0.00 0.00 0.00 0.00 0.01 0.02 0.04 0.02 0.00 0.00 0.00 0.01 0.00 0.00 0.00 0.00 0.00 0.00 0.00 0.01 0.03 0.12 0.12 0.13 0.21 0.36 0.15 0.09 0.14
0.00 0.00 0.00 0.00 0.00 0.00 0.00 0.00 0.00 0.00 0.00 0.00 0.00 0.00 0.00 0.00 0.00 0.00 0.00 0.01 0.02 0.04 0.03 0.00 0.00 0.00 0.00 0.00 0.00 0.00 0.00 0.00 0.00 0.01 0.01 0.00 0.01 0.02 0.02 0.02 0.01 0.01 0.01
0.00 0.00 0.00 0.00 0.00 0.00 0.00 0.00 0.00 0.00 0.00 0.00 0.00 0.00 0.00 0.00 0.00 0.00 0.00 0.00 0.00 0.01 0.01 0.00 0.00 0.00 0.00 0.00 0.00 0.00 0.00 0.00 0.00 0.00 0.00 0.00 0.02 0.02 0.01 0.01 0.01 0.01 0.01
0.00 0.00 0.00 0.00 0.00 0.00 0.00 0.00 0.00 0.00 0.00 0.00 0.00 0.00 0.00 0.00 0.00 0.00 0.00 0.00 0.00 0.00 0.00 0.00 0.00 0.00 0.00 0.00 0.00 0.00 0.00 0.00 0.00 0.00 0.00 0.01 0.02 0.03 0.01 0.01 0.00 0.00 0.00
0.00 0.00 0.00 0.00 0.00 0.00 0.00 0.00 0.00 0.00 0.00 0.00 0.00 0.00 0.00 0.00 0.00 0.00 0.00 0.00 0.00 0.00 0.00 0.00 0.00 0.00 0.00 0.00 0.00 0.00 0.00 0.00 0.00 0.00 0.00 0.00 0.01 0.02 0.02 0.00 0.00 0.00 0.00
0.00 0.00 0.00 0.00 0.00 0.00 0.00 0.00 0.00 0.00 0.00 0.00 0.00 0.00 0.00 0.00 0.00 0.00 0.00 0.00 0.00 0.00 0.00 0.00 0.00 0.00 0.00 0.00 0.00 0.00 0.00 0.00 0.00 0.00 0.00 0.00 0.00 0.02 0.04 0.01 0.00 0.00 0.00
0.00 0.00 0.00 0.00 0.00 0.00 0.00 0.00 0.00 0.00 0.00 0.00 0.00 0.00 0.00 0.00 0.00 0.00 0.00 0.00 0.00 0.00 0.00 0.00 0.00 0.00 0.00 0.00 0.00 0.00 0.00 0.00 0.00 0.00 0.00 0.00 0.00 0.00 0.03 0.01 0.00 0.00 0.00
0.00 0.00 0.00 0.00 0.00 0.00 0.00 0.00 0.00 0.00 0.00 0.00 0.00 0.00 0.00 0.00 0.00 0.00 0.00 0.00 0.00 0.00 0.00 0.00 0.00 0.00 0.00 0.00 0.00 0.00 0.00 0.00 0.00 0.00 0.00 0.00 0.00 0.00 0.00 0.00 0.00 0.00 0.00
0.00 0.00 0.00 0.00 0.00 0.00 0.00 0.00 0.00 0.00 0.00 0.00 0.00 0.00 0.00 0.00 0.00 0.00 0.00 0.00 0.00 0.00 0.00 0.00 0.00 0.00 0.00 0.00 0.00 0.00 0.00 0.00 0.00 0.00 0.00 0.00 0.00 0.00 0.00 0.00 0.00 0.00 0.00
0.00 0.00 0.00 0.00 0.00 0.00 0.00 0.00 0.00 0.00 0.00 0.00 0.00 0.00 0.00 0.00 0.00 0.00 0.00 0.00 0.00 0.00 0.00 0.00 0.00 0.00 0.00 0.00 0.00 0.00 0.00 0.00 0.00 0.00 0.00 0.00 0.00 0.00 0.00 0.00 0.00 0.00 0.00
0.00 0.00 0.00 0.00 0.00 0.00 0.00 0.00 0.00 0.00 0.00 0.00 0.00 0.00 0.00 0.00 0.00 0.00 0.00 0.00 0.00 0.00 0.00 0.00 0.00 0.00 0.00 0.00 0.00 0.00 0.00 0.00 0.00 0.00 0.00 0.00 0.00 0.00 0.00 0.00 0.00 0.00 0.00
0.00 0.00 0.00 0.00 0.00 0.00 0.00 0.00 0.00 0.00 0.00 0.00 0.00 0.00 0.00 0.00 0.00 0.00 0.00 0.00 0.00 0.00 0.00 0.00 0.00 0.00 0.00 0.00 0.00 0.00 0.00 0.00 0.00 0.00 0.00 0.00 0.00 0.00 0.00 0.00 0.00 0.00 0.00

GFSMA_prec_precacc24_210.txt.gz
Total_Precipitation_Accumulation
0.00 0.00 0.00 0.00 0.00 0.00 0.00 0.00 0.00 0.00 0.00 0.00 0.00 0.00 0.00 0.00 0.00 0.00 0.00 0.00 0.00 0.00 0.00 0.00 0.00 0.00 0.01 0.02 0.04 0.06 0.08 0.09 0.12 0.16 0.17 0.19 0.18 0.18 0.16 0.16 0.17 0.22 0.22
0.00 0.00 0.00 0.00 0.00 0.00 0.00 0.00 0.00 0.00 0.00 0.00 0.00 0.00 0.00 0.00 0.00 0.00 0.00 0.00 0.00 0.00 0.00 0.00 0.00 0.00 0.00 0.01 0.03 0.09 0.11 0.13 0.14 0.14 0.14 0.15 0.15 0.16 0.16 0.15 0.16 0.22 0.22
0.00 0.00 0.00 0.00 0.00 0.00 0.00 0.00 0.00 0.00 0.00 0.00 0.00 0.00 0.00 0.00 0.00 0.00 0.00 0.00 0.00 0.00 0.00 0.00 0.00 0.02 0.06 0.11 0.13 0.14 0.10 0.07 0.05 0.09 0.14 0.17 0.18 0.18 0.17 0.13 0.11 0.13 0.15
0.00 0.00 0.00 0.00 0.00 0.00 0.00 0.00 0.00 0.00 0.00 0.00 0.00 0.00 0.00 0.00 0.00 0.00 0.00 0.00 0.00 0.00 0.00 0.00 0.01 0.01 0.04 0.10 0.15 0.12 0.07 0.02 0.01 0.08 0.13 0.15 0.20 0.23 0.16 0.12 0.11 0.11 0.10
0.00 0.00 0.00 0.00 0.00 0.00 0.00 0.00 0.00 0.00 0.00 0.00 0.00 0.00 0.00 0.00 0.00 0.00 0.00 0.00 0.00 0.00 0.00 0.00 0.00 0.01 0.01 0.03 0.04 0.03 0.02 0.01 0.02 0.03 0.07 0.13 0.15 0.16 0.16 0.13 0.11 0.11 0.14
0.00 0.00 0.00 0.00 0.00 0.00 0.00 0.00 0.00 0.00 0.00 0.00 0.00 0.00 0.00 0.00 0.00 0.00 0.00 0.00 0.00 0.00 0.00 0.00 0.00 0.00 0.01 0.01 0.00 0.00 0.00 0.01 0.02 0.03 0.04 0.07 0.11 0.17 0.28 0.30 0.31 0.32 0.31
0.00 0.00 0.00 0.00 0.00 0.00 0.00 0.00 0.00 0.00 0.00 0.00 0.00 0.00 0.00 0.00 0.00 0.00 0.00 0.00 0.00 0.00 0.00 0.00 0.00 0.00 0.00 0.00 0.00 0.00 0.00 0.00 0.01 0.03 0.04 0.05 0.05 0.08 0.48 1.10 1.25 1.44 1.53
0.00 0.00 0.00 0.00 0.00 0.00 0.00 0.00 0.00 0.00 0.00 0.00 0.00 0.00 0.00 0.00 0.00 0.00 0.00 0.00 0.00 0.00 0.00 0.00 0.00 0.00 0.00 0.00 0.00 0.00 0.00 0.00 0.02 0.04 0.06 0.09 0.08 0.12 0.35 0.79 1.22 1.48 1.65
0.00 0.00 0.00 0.00 0.00 0.00 0.00 0.00 0.00 0.00 0.00 0.00 0.00 0.00 0.00 0.00 0.00 0.00 0.00 0.00 0.00 0.00 0.00 0.00 0.00 0.00 0.00 0.00 0.00 0.00 0.00 0.00 0.01 0.05 0.09 0.16 0.15 0.11 0.14 0.25 0.31 0.31 0.39
0.00 0.00 0.00 0.00 0.00 0.00 0.00 0.00 0.00 0.00 0.00 0.00 0.00 0.00 0.00 0.00 0.00 0.00 0.00 0.00 0.00 0.00 0.00 0.00 0.00 0.00 0.00 0.00 0.01 0.00 0.00 0.01 0.02 0.06 0.15 0.19 0.18 0.15 0.22 0.22 0.18 0.23 0.13
0.00 0.00 0.00 0.00 0.00 0.00 0.00 0.00 0.00 0.00 0.00 0.00 0.00 0.00 0.00 0.00 0.00 0.00 0.00 0.00 0.00 0.00 0.00 0.00 0.00 0.00 0.00 0.00 0.00 0.00 0.00 0.02 0.02 0.11 0.16 0.21 0.18 0.23 0.32 0.37 0.42 0.71 0.44
0.00 0.00 0.00 0.00 0.00 0.00 0.00 0.00 0.00 0.00 0.00 0.00 0.00 0.00 0.00 0.00 0.00 0.01 0.00 0.00 0.00 0.00 0.00 0.00 0.00 0.00 0.00 0.00 0.00 0.00 0.00 0.00 0.00 0.02 0.07 0.15 0.28 0.25 0.37 0.51 0.76 1.09 0.52
0.00 0.00 0.00 0.00 0.00 0.00 0.00 0.00 0.00 0.00 0.00 0.00 0.00 0.00 0.00 0.00 0.01 0.02 0.02 0.00 0.00 0.00 0.00 0.00 0.00 0.00 0.00 0.00 0.00 0.00 0.00 0.00 0.00 0.01 0.16 0.69 0.96 0.42 1.43 1.11 1.85 2.79 1.02
0.00 0.00 0.00 0.00 0.00 0.00 0.00 0.00 0.00 0.00 0.00 0.00 0.00 0.00 0.00 0.00 0.01 0.01 0.02 0.02 0.01 0.00 0.00 0.00 0.00 0.01 0.00 0.00 0.00 0.00 0.00 0.00 0.00 0.01 0.08 0.51 0.93 0.85 1.49 1.98 1.13 0.88 0.54
0.00 0.00 0.00 0.00 0.00 0.00 0.00 0.00 0.00 0.00 0.00 0.00 0.00 0.00 0.00 0.00 0.00 0.00 0.01 0.02 0.03 0.01 0.00 0.00 0.00 0.01 0.00 0.00 0.00 0.00 0.00 0.00 0.00 0.01 0.01 0.03 0.08 0.13 0.21 0.36 0.15 0.09 0.14
0.00 0.00 0.00 0.00 0.00 0.00 0.00 0.00 0.00 0.00 0.00 0.00 0.00 0.00 0.00 0.00 0.00 0.00 0.00 0.01 0.02 0.03 0.02 0.00 0.00 0.00 0.00 0.00 0.00 0.00 0.00 0.00 0.00 0.01 0.00 0.00 0.01 0.01 0.02 0.01 0.01 0.01 0.01
0.00 0.00 0.00 0.00 0.00 0.00 0.00 0.00 0.00 0.00 0.00 0.00 0.00 0.00 0.00 0.00 0.00 0.00 0.00 0.00 0.00 0.01 0.01 0.00 0.00 0.00 0.00 0.00 0.00 0.00 0.00 0.00 0.00 0.00 0.00 0.00 0.01 0.01 0.01 0.01 0.01 0.00 0.01
0.00 0.00 0.00 0.00 0.00 0.00 0.00 0.00 0.00 0.00 0.00 0.00 0.00 0.00 0.00 0.00 0.00 0.00 0.00 0.00 0.00 0.00 0.00 0.00 0.00 0.00 0.00 0.00 0.00 0.00 0.00 0.00 0.00 0.00 0.00 0.00 0.02 0.02 0.01 0.00 0.00 0.00 0.00
0.00 0.00 0.00 0.00 0.00 0.00 0.00 0.00 0.00 0.00 0.00 0.00 0.00 0.00 0.00 0.00 0.00 0.00 0.00 0.00 0.00 0.00 0.00 0.00 0.00 0.00 0.00 0.00 0.00 0.00 0.00 0.00 0.00 0.00 0.00 0.00 0.01 0.02 0.01 0.00 0.00 0.00 0.00
0.00 0.00 0.00 0.00 0.00 0.00 0.00 0.00 0.00 0.00 0.00 0.00 0.00 0.00 0.00 0.00 0.00 0.00 0.00 0.00 0.00 0.00 0.00 0.00 0.00 0.00 0.00 0.00 0.00 0.00 0.00 0.00 0.00 0.00 0.00 0.00 0.00 0.01 0.03 0.01 0.00 0.00 0.00
0.00 0.00 0.00 0.00 0.00 0.00 0.00 0.00 0.00 0.00 0.00 0.00 0.00 0.00 0.00 0.00 0.00 0.00 0.00 0.00 0.00 0.00 0.00 0.00 0.00 0.00 0.00 0.00 0.00 0.00 0.00 0.00 0.00 0.00 0.00 0.00 0.00 0.00 0.02 0.01 0.00 0.00 0.00
0.00 0.00 0.00 0.00 0.00 0.00 0.00 0.00 0.00 0.00 0.00 0.00 0.00 0.00 0.00 0.00 0.00 0.00 0.00 0.00 0.00 0.00 0.00 0.00 0.00 0.00 0.00 0.00 0.00 0.00 0.00 0.00 0.00 0.00 0.00 0.00 0.00 0.00 0.00 0.00 0.00 0.00 0.00
0.00 0.00 0.00 0.00 0.00 0.00 0.00 0.00 0.00 0.00 0.00 0.00 0.00 0.00 0.00 0.00 0.00 0.00 0.00 0.00 0.00 0.00 0.00 0.00 0.00 0.00 0.00 0.00 0.00 0.00 0.00 0.00 0.00 0.00 0.00 0.00 0.00 0.00 0.00 0.00 0.00 0.00 0.00
0.00 0.00 0.00 0.00 0.00 0.00 0.00 0.00 0.00 0.00 0.00 0.00 0.00 0.00 0.00 0.00 0.00 0.00 0.00 0.00 0.00 0.00 0.00 0.00 0.00 0.00 0.00 0.00 0.00 0.00 0.00 0.00 0.00 0.00 0.00 0.00 0.00 0.00 0.00 0.00 0.00 0.00 0.00
0.00 0.00 0.00 0.00 0.00 0.00 0.00 0.00 0.00 0.00 0.00 0.00 0.00 0.00 0.00 0.00 0.00 0.00 0.00 0.00 0.00 0.00 0.00 0.00 0.00 0.00 0.00 0.00 0.00 0.00 0.00 0.00 0.00 0.00 0.00 0.00 0.00 0.00 0.00 0.00 0.00 0.00 0.00
0.00 0.00 0.00 0.00 0.00 0.00 0.00 0.00 0.00 0.00 0.00 0.00 0.00 0.00 0.00 0.00 0.00 0.00 0.00 0.00 0.00 0.00 0.00 0.00 0.00 0.00 0.00 0.00 0.00 0.00 0.00 0.00 0.00 0.00 0.00 0.00 0.00 0.00 0.00 0.00 0.00 0.00 0.00